Wetterdaten: Donnerstag, 12.01.2017
Datum Zeit Temp. Aussen Temp. o. S. +5cm Feuchte Auss BlattFeu 1 Luftdruck Regen Sonnenschein Regendauer Solar Windben Empfang
12.01.2017 00:00 4,8 C 4,4 C 2,8 C 84 % 0 lf 1009,1 hPa 0,0 l/m 0 min 0 min 0 W/m 20,9 km/h (4 Bft) 93,62 %
12.01.2017 00:02 4,8 C 4,4 C 2,2 C 84 % 0 lf 1009,1 hPa 0,0 l/m 0 min 0 min 0 W/m 18,8 km/h (3 Bft) 93,33 %
12.01.2017 00:06 4,8 C 4,4 C 2,8 C 84 % 0 lf 1009,2 hPa 0,0 l/m 0 min 0 min 0 W/m 25,1 km/h (4 Bft) 93,98 %
12.01.2017 00:08 4,8 C 4,4 C 2,2 C 84 % 0 lf 1009,2 hPa 0,0 l/m 0 min 0 min 0 W/m 25,1 km/h (4 Bft) 95,74 %
12.01.2017 00:10 4,7 C 4,4 C 2,2 C 84 % 0 lf 1009,3 hPa 0,0 l/m 0 min 0 min 0 W/m 20,9 km/h (4 Bft) 95,65 %
12.01.2017 00:12 4,7 C 4,4 C 2,2 C 84 % 0 lf 1009,3 hPa 0,0 l/m 0 min 0 min 0 W/m 14,6 km/h (3 Bft) 95,74 %
12.01.2017 00:14 4,7 C 4,4 C 2,2 C 84 % 0 lf 1009,4 hPa 0,0 l/m 0 min 0 min 0 W/m 20,9 km/h (4 Bft) 97,87 %
12.01.2017 00:16 4,7 C 4,4 C 2,2 C 84 % 0 lf 1009,3 hPa 0,0 l/m 0 min 0 min 0 W/m 20,9 km/h (4 Bft) 97,87 %
12.01.2017 00:18 4,7 C 4,4 C 2,2 C 84 % 0 lf 1009,4 hPa 0,0 l/m 0 min 0 min 0 W/m 20,9 km/h (4 Bft) 97,87 %
12.01.2017 00:20 4,7 C 4,4 C 2,2 C 84 % 0 lf 1009,6 hPa 0,0 l/m 0 min 0 min 0 W/m 18,8 km/h (3 Bft) 97,87 %
12.01.2017 00:22 4,7 C 4,4 C 2,8 C 84 % 0 lf 1009,6 hPa 0,0 l/m 0 min 0 min 0 W/m 20,9 km/h (4 Bft) 100,00 %
12.01.2017 00:24 4,6 C 4,4 C 2,8 C 84 % 0 lf 1009,6 hPa 0,0 l/m 0 min 0 min 0 W/m 25,1 km/h (4 Bft) 93,62 %
12.01.2017 00:26 4,6 C 5,0 C 2,8 C 84 % 0 lf 1009,6 hPa 0,0 l/m 0 min 0 min 0 W/m 18,8 km/h (3 Bft) 100,00 %
12.01.2017 00:28 4,7 C 5,0 C 2,8 C 84 % 0 lf 1009,6 hPa 0,0 l/m 0 min 0 min 0 W/m 18,8 km/h (3 Bft) 93,62 %
12.01.2017 00:30 4,7 C 5,0 C 2,8 C 84 % 0 lf 1009,6 hPa 0,0 l/m 0 min 0 min 0 W/m 18,8 km/h (3 Bft) 100,00 %
12.01.2017 00:32 4,7 C 5,0 C 2,8 C 84 % 0 lf 1009,6 hPa 0,0 l/m 0 min 0 min 0 W/m 18,8 km/h (3 Bft) 97,83 %
12.01.2017 00:34 4,7 C 5,0 C 2,8 C 84 % 0 lf 1009,7 hPa 0,0 l/m 0 min 0 min 0 W/m 16,7 km/h (3 Bft) 95,74 %
12.01.2017 00:36 4,7 C 5,0 C 2,8 C 84 % 0 lf 1009,8 hPa 0,0 l/m 0 min 0 min 0 W/m 18,8 km/h (3 Bft) 100,00 %
12.01.2017 00:38 4,7 C 5,0 C 2,8 C 84 % 0 lf 1009,8 hPa 0,0 l/m 0 min 0 min 0 W/m 25,1 km/h (4 Bft) 95,74 %
12.01.2017 00:40 4,7 C 4,4 C 2,8 C 84 % 0 lf 1009,7 hPa 0,0 l/m 0 min 0 min 0 W/m 23,0 km/h (4 Bft) 100,00 %
12.01.2017 00:42 4,6 C 4,4 C 2,8 C 84 % 0 lf 1009,7 hPa 0,0 l/m 0 min 0 min 0 W/m 25,1 km/h (4 Bft) 95,74 %
12.01.2017 00:44 4,6 C 4,4 C 2,8 C 84 % 0 lf 1009,7 hPa 0,0 l/m 0 min 0 min 0 W/m 18,8 km/h (3 Bft) 95,65 %
12.01.2017 00:46 4,6 C 4,4 C 2,2 C 84 % 0 lf 1009,7 hPa 0,0 l/m 0 min 0 min 0 W/m 16,7 km/h (3 Bft) 93,62 %
12.01.2017 00:48 4,6 C 4,4 C 2,2 C 84 % 0 lf 1009,8 hPa 0,0 l/m 0 min 0 min 0 W/m 27,2 km/h (4 Bft) 97,87 %
12.01.2017 00:50 4,6 C 4,4 C 2,2 C 84 % 0 lf 1009,8 hPa 0,0 l/m 0 min 0 min 0 W/m 27,2 km/h (4 Bft) 95,74 %
12.01.2017 00:52 4,6 C 4,4 C 2,2 C 84 % 0 lf 1009,8 hPa 0,0 l/m 0 min 0 min 0 W/m 25,1 km/h (4 Bft) 94,00 %
12.01.2017 00:54 4,6 C 4,4 C 2,2 C 84 % 0 lf 1009,8 hPa 0,0 l/m 0 min 0 min 0 W/m 16,7 km/h (3 Bft) 95,65 %
12.01.2017 00:56 4,6 C 4,4 C 2,2 C 84 % 0 lf 1009,9 hPa 0,0 l/m 0 min 0 min 0 W/m 20,9 km/h (4 Bft) 95,74 %
12.01.2017 00:58 4,5 C 4,4 C 2,2 C 84 % 0 lf 1009,9 hPa 0,0 l/m 0 min 0 min 0 W/m 18,8 km/h (3 Bft) 93,62 %
12.01.2017 01:00 4,5 C 4,4 C 2,2 C 84 % 0 lf 1009,9 hPa 0,0 l/m 0 min 0 min 0 W/m 20,9 km/h (4 Bft) 95,74 %
12.01.2017 01:02 4,4 C 4,4 C 2,2 C 84 % 0 lf 1009,8 hPa 0,0 l/m 0 min 0 min 0 W/m 16,7 km/h (3 Bft) 91,67 %
12.01.2017 01:04 4,4 C 4,4 C 2,2 C 84 % 0 lf 1009,9 hPa 0,0 l/m 0 min 0 min 0 W/m 20,9 km/h (4 Bft) 91,30 %
12.01.2017 01:06 4,4 C 3,9 C 2,2 C 84 % 0 lf 1009,9 hPa 0,0 l/m 0 min 0 min 0 W/m 16,7 km/h (3 Bft) 94,59 %
12.01.2017 01:08 4,4 C 3,9 C 2,2 C 85 % 0 lf 1009,8 hPa 0,0 l/m 0 min 0 min 0 W/m 18,8 km/h (3 Bft) 93,48 %
12.01.2017 01:10 4,3 C 3,9 C 2,2 C 85 % 0 lf 1009,8 hPa 0,0 l/m 0 min 0 min 0 W/m 16,7 km/h (3 Bft) 91,49 %
12.01.2017 01:12 4,3 C 3,9 C 2,2 C 85 % 0 lf 1009,8 hPa 0,0 l/m 0 min 0 min 0 W/m 16,7 km/h (3 Bft) 97,87 %
12.01.2017 01:14 4,3 C 3,9 C 2,2 C 85 % 0 lf 1009,8 hPa 0,0 l/m 0 min 0 min 0 W/m 25,1 km/h (4 Bft) 97,87 %
12.01.2017 01:16 4,2 C 4,4 C 2,2 C 85 % 0 lf 1009,8 hPa 0,0 l/m 0 min 0 min 0 W/m 18,8 km/h (3 Bft) 95,74 %
12.01.2017 01:18 4,2 C 4,4 C 2,2 C 85 % 0 lf 1010,0 hPa 0,0 l/m 0 min 0 min 0 W/m 23,0 km/h (4 Bft) 91,49 %
12.01.2017 01:20 4,2 C 4,4 C 2,2 C 85 % 0 lf 1009,9 hPa 0,0 l/m 0 min 0 min 0 W/m 18,8 km/h (3 Bft) 95,65 %
12.01.2017 01:22 4,2 C 4,4 C 2,2 C 85 % 0 lf 1009,9 hPa 0,0 l/m 0 min 0 min 0 W/m 20,9 km/h (4 Bft) 97,87 %
12.01.2017 01:24 4,2 C 4,4 C 2,2 C 85 % 0 lf 1009,9 hPa 0,0 l/m 0 min 0 min 0 W/m 20,9 km/h (4 Bft) 97,87 %
12.01.2017 01:26 4,2 C 4,4 C 2,2 C 85 % 0 lf 1009,9 hPa 0,0 l/m 0 min 0 min 0 W/m 23,0 km/h (4 Bft) 93,62 %
12.01.2017 01:28 4,2 C 3,9 C 2,2 C 85 % 0 lf 1009,9 hPa 0,0 l/m 0 min 0 min 0 W/m 20,9 km/h (4 Bft) 95,74 %
12.01.2017 01:30 4,2 C 3,9 C 2,2 C 85 % 0 lf 1009,9 hPa 0,0 l/m 0 min 0 min 0 W/m 18,8 km/h (3 Bft) 95,74 %
12.01.2017 01:32 4,2 C 3,9 C 2,2 C 86 % 0 lf 1009,9 hPa 0,0 l/m 0 min 0 min 0 W/m 16,7 km/h (3 Bft) 97,83 %
12.01.2017 01:34 4,2 C 3,9 C 2,2 C 86 % 0 lf 1009,9 hPa 0,0 l/m 0 min 0 min 0 W/m 27,2 km/h (4 Bft) 97,87 %
12.01.2017 01:36 4,2 C 3,9 C 2,2 C 86 % 0 lf 1009,9 hPa 0,0 l/m 0 min 0 min 0 W/m 14,6 km/h (3 Bft) 96,30 %
12.01.2017 01:38 4,1 C 3,9 C 1,7 C 86 % 0 lf 1009,9 hPa 0,0 l/m 0 min 0 min 0 W/m 20,9 km/h (4 Bft) 97,87 %
12.01.2017 01:40 4,1 C 3,9 C 1,7 C 86 % 0 lf 1010,0 hPa 0,0 l/m 0 min 0 min 0 W/m 14,6 km/h (3 Bft) 95,65 %
12.01.2017 01:42 4,1 C 3,9 C 1,7 C 86 % 0 lf 1010,0 hPa 0,0 l/m 0 min 0 min 0 W/m 20,9 km/h (4 Bft) 91,49 %
12.01.2017 01:44 4,1 C 3,9 C 1,7 C 86 % 0 lf 1010,0 hPa 0,0 l/m 0 min 0 min 0 W/m 20,9 km/h (4 Bft) 97,87 %
12.01.2017 01:46 4,1 C 3,9 C 1,7 C 86 % 0 lf 1009,9 hPa 0,0 l/m 0 min 0 min 0 W/m 20,9 km/h (4 Bft) 97,87 %
12.01.2017 01:48 4,0 C 3,9 C 1,7 C 86 % 0 lf 1009,9 hPa 0,0 l/m 0 min 0 min 0 W/m 16,7 km/h (3 Bft) 100,00 %
12.01.2017 01:50 4,0 C 3,9 C 1,7 C 86 % 0 lf 1009,9 hPa 0,0 l/m 0 min 0 min 0 W/m 14,6 km/h (3 Bft) 100,00 %
12.01.2017 01:52 4,0 C 3,9 C 1,7 C 86 % 0 lf 1010,0 hPa 0,0 l/m 0 min 0 min 0 W/m 18,8 km/h (3 Bft) 97,83 %
12.01.2017 01:54 4,0 C 3,9 C 1,7 C 86 % 0 lf 1009,9 hPa 0,0 l/m 0 min 0 min 0 W/m 16,7 km/h (3 Bft) 97,87 %
12.01.2017 01:56 3,9 C 3,9 C 1,7 C 86 % 0 lf 1009,9 hPa 0,0 l/m 0 min 0 min 0 W/m 18,8 km/h (3 Bft) 95,74 %
12.01.2017 01:58 3,9 C 3,9 C 1,7 C 86 % 0 lf 1009,9 hPa 0,0 l/m 0 min 0 min 0 W/m 20,9 km/h (4 Bft) 97,87 %
12.01.2017 02:00 3,9 C 3,9 C 1,7 C 86 % 0 lf 1009,9 hPa 0,0 l/m 0 min 0 min 0 W/m 25,1 km/h (4 Bft) 93,62 %
12.01.2017 02:02 3,9 C 3,9 C 2,2 C 86 % 0 lf 1009,8 hPa 0,0 l/m 0 min 0 min 0 W/m 25,1 km/h (4 Bft) 93,75 %
12.01.2017 02:04 3,9 C 3,9 C 2,2 C 86 % 0 lf 1009,9 hPa 0,0 l/m 0 min 0 min 0 W/m 23,0 km/h (4 Bft) 97,83 %
12.01.2017 02:06 3,9 C 3,9 C 2,2 C 86 % 0 lf 1010,0 hPa 0,0 l/m 0 min 0 min 0 W/m 16,7 km/h (3 Bft) 98,00 %
12.01.2017 02:08 3,9 C 3,9 C 1,7 C 86 % 0 lf 1009,9 hPa 0,0 l/m 0 min 0 min 0 W/m 16,7 km/h (3 Bft) 97,87 %
12.01.2017 02:10 3,9 C 3,9 C 1,7 C 86 % 0 lf 1010,1 hPa 0,0 l/m 0 min 0 min 0 W/m 18,8 km/h (3 Bft) 95,74 %
12.01.2017 02:12 3,9 C 3,9 C 1,7 C 86 % 0 lf 1010,1 hPa 0,0 l/m 0 min 0 min 0 W/m 27,2 km/h (4 Bft) 95,74 %
12.01.2017 02:14 3,9 C 3,9 C 2,2 C 86 % 0 lf 1010,1 hPa 0,0 l/m 0 min 0 min 0 W/m 23,0 km/h (4 Bft) 97,87 %
12.01.2017 02:16 3,9 C 3,9 C 2,2 C 86 % 0 lf 1010,1 hPa 0,0 l/m 0 min 0 min 0 W/m 16,7 km/h (3 Bft) 95,65 %
12.01.2017 02:18 3,9 C 3,9 C 1,7 C 86 % 0 lf 1010,1 hPa 0,0 l/m 0 min 0 min 0 W/m 18,8 km/h (3 Bft) 97,87 %
12.01.2017 02:20 3,9 C 3,9 C 2,2 C 86 % 0 lf 1010,0 hPa 0,0 l/m 0 min 0 min 0 W/m 18,8 km/h (3 Bft) 95,74 %
12.01.2017 02:22 3,9 C 3,9 C 2,2 C 86 % 0 lf 1010,2 hPa 0,0 l/m 0 min 0 min 0 W/m 16,7 km/h (3 Bft) 97,22 %
12.01.2017 02:24 3,9 C 4,4 C 2,2 C 86 % 0 lf 1010,1 hPa 0,0 l/m 0 min 0 min 0 W/m 23,0 km/h (4 Bft) 93,62 %
12.01.2017 02:26 3,9 C 4,4 C 2,2 C 86 % 0 lf 1010,1 hPa 0,0 l/m 0 min 0 min 0 W/m 20,9 km/h (4 Bft) 95,74 %
12.01.2017 02:28 3,9 C 4,4 C 2,2 C 86 % 0 lf 1010,1 hPa 0,0 l/m 0 min 0 min 0 W/m 18,8 km/h (3 Bft) 93,62 %
12.01.2017 02:30 3,9 C 4,4 C 2,2 C 86 % 0 lf 1010,1 hPa 0,0 l/m 0 min 0 min 0 W/m 20,9 km/h (4 Bft) 97,83 %
12.01.2017 02:32 3,9 C 4,4 C 2,2 C 86 % 0 lf 1010,1 hPa 0,0 l/m 0 min 0 min 0 W/m 23,0 km/h (4 Bft) 95,74 %
12.01.2017 02:34 4,0 C 4,4 C 2,2 C 86 % 0 lf 1010,2 hPa 0,0 l/m 0 min 0 min 0 W/m 31,4 km/h (5 Bft) 93,62 %
12.01.2017 02:36 4,0 C 4,4 C 2,2 C 86 % 0 lf 1010,1 hPa 0,0 l/m 0 min 0 min 0 W/m 23,0 km/h (4 Bft) 96,30 %
12.01.2017 02:38 4,0 C 4,4 C 2,2 C 86 % 0 lf 1010,1 hPa 0,0 l/m 0 min 0 min 0 W/m 27,2 km/h (4 Bft) 95,74 %
12.01.2017 02:40 4,0 C 3,9 C 2,2 C 86 % 0 lf 1010,2 hPa 0,0 l/m 0 min 0 min 0 W/m 16,7 km/h (3 Bft) 95,65 %
12.01.2017 02:42 4,0 C 3,9 C 2,2 C 86 % 0 lf 1010,2 hPa 0,0 l/m 0 min 0 min 0 W/m 20,9 km/h (4 Bft) 93,62 %
12.01.2017 02:44 4,0 C 3,9 C 2,2 C 86 % 0 lf 1010,3 hPa 0,0 l/m 0 min 0 min 0 W/m 25,1 km/h (4 Bft) 97,87 %
12.01.2017 02:46 4,0 C 3,9 C 2,2 C 86 % 0 lf 1010,3 hPa 0,0 l/m 0 min 0 min 0 W/m 23,0 km/h (4 Bft) 93,62 %
12.01.2017 02:48 4,0 C 3,9 C 2,2 C 85 % 0 lf 1010,3 hPa 0,0 l/m 0 min 0 min 0 W/m 27,2 km/h (4 Bft) 97,87 %
12.01.2017 02:50 4,0 C 3,9 C 2,2 C 85 % 0 lf 1010,3 hPa 0,0 l/m 0 min 0 min 0 W/m 27,2 km/h (4 Bft) 95,65 %
12.01.2017 02:52 4,0 C 3,9 C 2,2 C 85 % 0 lf 1010,3 hPa 0,0 l/m 0 min 0 min 0 W/m 31,4 km/h (5 Bft) 97,87 %
12.01.2017 02:54 4,0 C 4,4 C 2,2 C 86 % 0 lf 1010,4 hPa 0,0 l/m 0 min 0 min 0 W/m 27,2 km/h (4 Bft) 97,87 %
12.01.2017 02:56 4,0 C 4,4 C 2,2 C 85 % 0 lf 1010,4 hPa 0,0 l/m 0 min 0 min 0 W/m 25,1 km/h (4 Bft) 95,74 %
12.01.2017 02:58 4,0 C 3,9 C 2,2 C 85 % 0 lf 1010,4 hPa 0,0 l/m 0 min 0 min 0 W/m 20,9 km/h (4 Bft) 100,00 %
12.01.2017 03:00 4,0 C 3,9 C 2,2 C 85 % 0 lf 1010,3 hPa 0,0 l/m 0 min 0 min 0 W/m 25,1 km/h (4 Bft) 100,00 %
12.01.2017 03:02 4,0 C 3,9 C 2,2 C 85 % 0 lf 1010,4 hPa 0,0 l/m 0 min 0 min 0 W/m 25,1 km/h (4 Bft) 97,87 %
12.01.2017 03:04 4,0 C 3,9 C 2,2 C 85 % 0 lf 1010,4 hPa 0,0 l/m 0 min 0 min 0 W/m 23,0 km/h (4 Bft) 95,74 %
12.01.2017 03:06 4,0 C 3,9 C 2,2 C 85 % 0 lf 1010,4 hPa 0,0 l/m 0 min 0 min 0 W/m 18,8 km/h (3 Bft) 100,00 %
12.01.2017 03:08 3,9 C 3,9 C 2,2 C 85 % 0 lf 1010,4 hPa 0,0 l/m 0 min 0 min 0 W/m 23,0 km/h (4 Bft) 93,62 %
12.01.2017 03:10 3,9 C 3,9 C 1,7 C 85 % 0 lf 1010,4 hPa 0,0 l/m 0 min 0 min 0 W/m 23,0 km/h (4 Bft) 97,87 %
12.01.2017 03:12 3,9 C 3,9 C 2,2 C 85 % 0 lf 1010,3 hPa 0,0 l/m 0 min 0 min 0 W/m 25,1 km/h (4 Bft) 97,87 %
12.01.2017 03:14 3,9 C 3,9 C 1,7 C 85 % 0 lf 1010,3 hPa 0,0 l/m 0 min 0 min 0 W/m 23,0 km/h (4 Bft) 100,00 %
12.01.2017 03:16 3,9 C 3,9 C 2,2 C 85 % 0 lf 1010,3 hPa 0,0 l/m 0 min 0 min 0 W/m 23,0 km/h (4 Bft) 97,87 %
12.01.2017 03:18 3,9 C 3,9 C 2,2 C 85 % 0 lf 1010,3 hPa 0,0 l/m 0 min 0 min 0 W/m 27,2 km/h (4 Bft) 100,00 %
12.01.2017 03:20 3,9 C 3,9 C 2,2 C 85 % 0 lf 1010,3 hPa 0,0 l/m 0 min 0 min 0 W/m 23,0 km/h (4 Bft) 97,87 %
12.01.2017 03:22 3,9 C 3,9 C 1,7 C 85 % 0 lf 1010,2 hPa 0,0 l/m 0 min 0 min 0 W/m 23,0 km/h (4 Bft) 97,87 %
12.01.2017 03:24 3,9 C 3,9 C 1,7 C 85 % 0 lf 1010,2 hPa 0,0 l/m 0 min 0 min 0 W/m 23,0 km/h (4 Bft) 97,87 %
12.01.2017 03:26 3,9 C 3,9 C 1,7 C 85 % 0 lf 1010,2 hPa 0,0 l/m 0 min 0 min 0 W/m 20,9 km/h (4 Bft) 95,65 %
12.01.2017 03:28 3,9 C 3,9 C 1,7 C 85 % 0 lf 1010,2 hPa 0,0 l/m 0 min 0 min 0 W/m 20,9 km/h (4 Bft) 95,74 %
12.01.2017 03:30 3,9 C 3,9 C 1,7 C 85 % 0 lf 1010,3 hPa 0,0 l/m 0 min 0 min 0 W/m 23,0 km/h (4 Bft) 100,00 %
12.01.2017 03:32 3,8 C 3,9 C 1,7 C 85 % 0 lf 1010,3 hPa 0,0 l/m 0 min 0 min 0 W/m 20,9 km/h (4 Bft) 97,22 %
12.01.2017 03:34 3,8 C 3,9 C 1,7 C 85 % 0 lf 1010,3 hPa 0,0 l/m 0 min 0 min 0 W/m 31,4 km/h (5 Bft) 93,62 %
12.01.2017 03:36 3,8 C 3,9 C 1,7 C 85 % 0 lf 1010,3 hPa 0,0 l/m 0 min 0 min 0 W/m 25,1 km/h (4 Bft) 98,11 %
12.01.2017 03:38 3,8 C 3,9 C 1,7 C 85 % 0 lf 1010,2 hPa 0,0 l/m 0 min 0 min 0 W/m 25,1 km/h (4 Bft) 97,83 %
12.01.2017 03:40 3,8 C 3,9 C 2,2 C 85 % 0 lf 1010,3 hPa 0,0 l/m 0 min 0 min 0 W/m 27,2 km/h (4 Bft) 97,87 %
12.01.2017 03:42 3,8 C 3,9 C 1,7 C 85 % 0 lf 1010,3 hPa 0,0 l/m 0 min 0 min 0 W/m 27,2 km/h (4 Bft) 95,74 %
12.01.2017 03:44 3,8 C 3,9 C 2,2 C 85 % 0 lf 1010,3 hPa 0,0 l/m 0 min 0 min 0 W/m 25,1 km/h (4 Bft) 97,87 %
12.01.2017 03:46 3,8 C 3,9 C 2,2 C 85 % 0 lf 1010,3 hPa 0,0 l/m 0 min 0 min 0 W/m 27,2 km/h (4 Bft) 97,56 %
12.01.2017 03:48 3,8 C 3,9 C 2,2 C 85 % 0 lf 1010,3 hPa 0,0 l/m 0 min 0 min 0 W/m 23,0 km/h (4 Bft) 95,74 %
12.01.2017 03:50 3,8 C 3,9 C 1,7 C 85 % 0 lf 1010,4 hPa 0,0 l/m 0 min 0 min 0 W/m 27,2 km/h (4 Bft) 92,31 %
12.01.2017 03:52 3,8 C 3,9 C 1,7 C 85 % 0 lf 1010,3 hPa 0,0 l/m 0 min 0 min 0 W/m 25,1 km/h (4 Bft) 96,00 %
12.01.2017 03:54 3,8 C 3,9 C 1,7 C 85 % 0 lf 1010,3 hPa 0,0 l/m 0 min 0 min 0 W/m 25,1 km/h (4 Bft) 97,87 %
12.01.2017 03:56 3,8 C 3,9 C 1,7 C 85 % 0 lf 1010,4 hPa 0,0 l/m 0 min 0 min 0 W/m 23,0 km/h (4 Bft) 95,74 %
12.01.2017 03:58 3,8 C 3,9 C 1,7 C 85 % 0 lf 1010,4 hPa 0,0 l/m 0 min 0 min 0 W/m 27,2 km/h (4 Bft) 91,49 %
12.01.2017 04:00 3,8 C 3,9 C 1,7 C 85 % 0 lf 1010,4 hPa 0,0 l/m 0 min 0 min 0 W/m 23,0 km/h (4 Bft) 93,48 %
12.01.2017 04:02 3,8 C 3,9 C 1,7 C 85 % 0 lf 1010,4 hPa 0,0 l/m 0 min 0 min 0 W/m 23,0 km/h (4 Bft) 96,97 %
12.01.2017 04:04 3,8 C 3,9 C 1,7 C 85 % 0 lf 1010,4 hPa 0,0 l/m 0 min 0 min 0 W/m 29,3 km/h (5 Bft) 97,87 %
12.01.2017 04:06 3,8 C 3,9 C 1,7 C 85 % 0 lf 1010,4 hPa 0,0 l/m 0 min 0 min 0 W/m 27,2 km/h (4 Bft) 92,11 %
12.01.2017 04:08 3,8 C 3,9 C 1,7 C 85 % 0 lf 1010,5 hPa 0,0 l/m 0 min 0 min 0 W/m 23,0 km/h (4 Bft) 93,62 %
12.01.2017 04:10 3,8 C 3,9 C 1,7 C 85 % 0 lf 1010,4 hPa 0,0 l/m 0 min 0 min 0 W/m 25,1 km/h (4 Bft) 93,62 %
12.01.2017 04:12 3,8 C 4,4 C 2,2 C 86 % 0 lf 1010,5 hPa 0,0 l/m 0 min 0 min 0 W/m 23,0 km/h (4 Bft) 91,49 %
12.01.2017 04:14 3,8 C 4,4 C 2,2 C 85 % 0 lf 1010,4 hPa 0,0 l/m 0 min 0 min 0 W/m 31,4 km/h (5 Bft) 91,30 %
12.01.2017 04:16 3,9 C 4,4 C 2,2 C 85 % 0 lf 1010,5 hPa 0,0 l/m 0 min 0 min 0 W/m 25,1 km/h (4 Bft) 93,62 %
12.01.2017 04:18 3,9 C 4,4 C 2,2 C 85 % 0 lf 1010,4 hPa 0,0 l/m 0 min 0 min 0 W/m 23,0 km/h (4 Bft) 89,36 %
12.01.2017 04:20 3,9 C 4,4 C 2,2 C 85 % 0 lf 1010,4 hPa 0,0 l/m 0 min 0 min 0 W/m 29,3 km/h (5 Bft) 95,74 %
12.01.2017 04:22 3,9 C 4,4 C 2,2 C 85 % 0 lf 1010,4 hPa 0,0 l/m 0 min 0 min 0 W/m 27,2 km/h (4 Bft) 90,74 %
12.01.2017 04:24 3,9 C 4,4 C 2,2 C 85 % 0 lf 1010,4 hPa 0,0 l/m 0 min 0 min 0 W/m 31,4 km/h (5 Bft) 100,00 %
12.01.2017 04:26 3,9 C 4,4 C 2,2 C 85 % 0 lf 1010,4 hPa 0,0 l/m 0 min 0 min 0 W/m 25,1 km/h (4 Bft) 97,87 %
12.01.2017 04:28 3,9 C 4,4 C 2,2 C 86 % 0 lf 1010,4 hPa 0,0 l/m 0 min 0 min 0 W/m 29,3 km/h (5 Bft) 93,62 %
12.01.2017 04:33 4,0 C 4,4 C 2,2 C 85 % 0 lf 1010,4 hPa 0,0 l/m 0 min 0 min 0 W/m 27,2 km/h (4 Bft) 93,62 %
12.01.2017 04:34 4,0 C 4,4 C 2,2 C 85 % 0 lf 1010,4 hPa 0,0 l/m 0 min 0 min 0 W/m 27,2 km/h (4 Bft) 95,83 %
12.01.2017 04:36 4,0 C 4,4 C 2,2 C 85 % 0 lf 1010,4 hPa 0,0 l/m 0 min 0 min 0 W/m 18,8 km/h (3 Bft) 100,00 %
12.01.2017 04:38 4,1 C 4,4 C 2,8 C 85 % 0 lf 1010,4 hPa 0,0 l/m 0 min 0 min 0 W/m 27,2 km/h (4 Bft) 93,48 %
12.01.2017 04:40 4,1 C 4,4 C 2,8 C 85 % 0 lf 1010,4 hPa 0,0 l/m 0 min 0 min 0 W/m 23,0 km/h (4 Bft) 91,49 %
12.01.2017 04:42 4,1 C 4,4 C 2,8 C 86 % 0 lf 1010,4 hPa 0,0 l/m 0 min 0 min 0 W/m 27,2 km/h (4 Bft) 91,67 %
12.01.2017 04:44 4,1 C 4,4 C 2,8 C 86 % 0 lf 1010,4 hPa 0,0 l/m 0 min 0 min 0 W/m 29,3 km/h (5 Bft) 93,62 %
12.01.2017 04:46 4,1 C 4,4 C 2,8 C 86 % 0 lf 1010,4 hPa 0,0 l/m 0 min 0 min 0 W/m 27,2 km/h (4 Bft) 95,74 %
12.01.2017 04:48 4,1 C 4,4 C 2,8 C 85 % 0 lf 1010,3 hPa 0,0 l/m 0 min 0 min 0 W/m 31,4 km/h (5 Bft) 91,49 %
12.01.2017 04:50 4,1 C 4,4 C 2,8 C 85 % 0 lf 1010,3 hPa 0,0 l/m 0 min 0 min 0 W/m 23,0 km/h (4 Bft) 91,49 %
12.01.2017 04:52 4,1 C 4,4 C 2,8 C 85 % 0 lf 1010,4 hPa 0,0 l/m 0 min 0 min 0 W/m 29,3 km/h (5 Bft) 93,62 %
12.01.2017 04:54 4,1 C 4,4 C 2,8 C 85 % 0 lf 1010,4 hPa 0,0 l/m 0 min 0 min 0 W/m 33,5 km/h (5 Bft) 93,62 %
12.01.2017 04:56 4,1 C 4,4 C 2,8 C 85 % 0 lf 1010,4 hPa 0,0 l/m 0 min 0 min 0 W/m 23,0 km/h (4 Bft) 97,87 %
12.01.2017 04:58 4,1 C 4,4 C 2,8 C 85 % 0 lf 1010,3 hPa 0,0 l/m 0 min 0 min 0 W/m 27,2 km/h (4 Bft) 95,74 %
12.01.2017 05:00 4,1 C 4,4 C 2,8 C 85 % 0 lf 1010,3 hPa 0,0 l/m 0 min 0 min 0 W/m 29,3 km/h (5 Bft) 94,23 %
12.01.2017 05:02 4,1 C 4,4 C 2,8 C 85 % 0 lf 1010,3 hPa 0,0 l/m 0 min 0 min 0 W/m 25,1 km/h (4 Bft) 95,83 %
12.01.2017 05:04 4,1 C 4,4 C 2,8 C 85 % 0 lf 1010,4 hPa 0,0 l/m 0 min 0 min 0 W/m 29,3 km/h (5 Bft) 97,87 %
12.01.2017 05:06 4,1 C 4,4 C 2,8 C 85 % 0 lf 1010,4 hPa 0,0 l/m 0 min 0 min 0 W/m 23,0 km/h (4 Bft) 95,74 %
12.01.2017 05:08 4,1 C 4,4 C 2,8 C 85 % 0 lf 1010,4 hPa 0,0 l/m 0 min 0 min 0 W/m 27,2 km/h (4 Bft) 97,87 %
12.01.2017 05:10 4,1 C 4,4 C 2,8 C 85 % 0 lf 1010,4 hPa 0,0 l/m 0 min 0 min 0 W/m 33,5 km/h (5 Bft) 97,83 %
12.01.2017 05:12 4,1 C 4,4 C 2,8 C 85 % 0 lf 1010,4 hPa 0,0 l/m 0 min 0 min 0 W/m 23,0 km/h (4 Bft) 95,74 %
12.01.2017 05:14 4,1 C 4,4 C 2,8 C 85 % 0 lf 1010,4 hPa 0,0 l/m 0 min 0 min 0 W/m 29,3 km/h (5 Bft) 93,62 %
12.01.2017 05:16 4,1 C 4,4 C 2,8 C 85 % 0 lf 1010,4 hPa 0,0 l/m 0 min 0 min 0 W/m 23,0 km/h (4 Bft) 95,74 %
12.01.2017 05:18 4,1 C 4,4 C 2,8 C 85 % 0 lf 1010,4 hPa 0,0 l/m 0 min 0 min 0 W/m 27,2 km/h (4 Bft) 95,74 %
12.01.2017 05:20 4,1 C 4,4 C 2,8 C 85 % 0 lf 1010,4 hPa 0,0 l/m 0 min 0 min 0 W/m 31,4 km/h (5 Bft) 100,00 %
12.01.2017 05:22 4,1 C 4,4 C 2,8 C 86 % 0 lf 1010,4 hPa 0,0 l/m 0 min 0 min 0 W/m 27,2 km/h (4 Bft) 93,48 %
12.01.2017 05:24 4,1 C 4,4 C 2,8 C 86 % 0 lf 1010,3 hPa 0,0 l/m 0 min 0 min 0 W/m 27,2 km/h (4 Bft) 100,00 %
12.01.2017 05:26 4,1 C 4,4 C 2,8 C 86 % 0 lf 1010,3 hPa 0,0 l/m 0 min 0 min 0 W/m 29,3 km/h (5 Bft) 100,00 %
12.01.2017 05:28 4,1 C 4,4 C 2,8 C 86 % 0 lf 1010,2 hPa 0,0 l/m 0 min 0 min 0 W/m 25,1 km/h (4 Bft) 97,87 %
12.01.2017 05:30 4,1 C 4,4 C 2,8 C 86 % 0 lf 1010,3 hPa 0,0 l/m 0 min 0 min 0 W/m 29,3 km/h (5 Bft) 97,87 %
12.01.2017 05:32 4,1 C 4,4 C 2,8 C 86 % 0 lf 1010,2 hPa 0,0 l/m 0 min 0 min 0 W/m 23,0 km/h (4 Bft) 100,00 %
12.01.2017 05:34 4,1 C 4,4 C 2,2 C 86 % 0 lf 1010,3 hPa 0,0 l/m 0 min 0 min 0 W/m 33,5 km/h (5 Bft) 97,83 %
12.01.2017 05:36 4,1 C 4,4 C 2,8 C 86 % 0 lf 1010,3 hPa 0,0 l/m 0 min 0 min 0 W/m 35,6 km/h (5 Bft) 100,00 %
12.01.2017 05:38 4,1 C 4,4 C 2,2 C 86 % 0 lf 1010,2 hPa 0,0 l/m 0 min 0 min 0 W/m 27,2 km/h (4 Bft) 97,87 %
12.01.2017 05:40 4,1 C 4,4 C 2,2 C 86 % 0 lf 1010,2 hPa 0,0 l/m 0 min 0 min 0 W/m 23,0 km/h (4 Bft) 97,87 %
12.01.2017 05:42 4,1 C 3,9 C 2,2 C 86 % 0 lf 1010,2 hPa 0,0 l/m 0 min 0 min 0 W/m 20,9 km/h (4 Bft) 97,87 %
12.01.2017 05:44 4,0 C 4,4 C 2,2 C 86 % 0 lf 1010,2 hPa 0,0 l/m 0 min 0 min 0 W/m 31,4 km/h (5 Bft) 100,00 %
12.01.2017 05:46 4,0 C 4,4 C 2,8 C 86 % 0 lf 1010,2 hPa 0,0 l/m 0 min 0 min 0 W/m 29,3 km/h (5 Bft) 97,87 %
12.01.2017 05:48 4,1 C 4,4 C 2,8 C 86 % 0 lf 1010,1 hPa 0,0 l/m 0 min 0 min 0 W/m 31,4 km/h (5 Bft) 100,00 %
12.01.2017 05:50 4,0 C 4,4 C 2,2 C 86 % 0 lf 1010,2 hPa 0,0 l/m 0 min 0 min 0 W/m 37,7 km/h (5 Bft) 100,00 %
12.01.2017 05:52 4,1 C 4,4 C 2,8 C 86 % 0 lf 1010,2 hPa 0,0 l/m 0 min 0 min 0 W/m 35,6 km/h (5 Bft) 98,15 %
12.01.2017 05:54 4,1 C 4,4 C 2,2 C 86 % 0 lf 1010,2 hPa 0,0 l/m 0 min 0 min 0 W/m 39,7 km/h (6 Bft) 100,00 %
12.01.2017 05:56 4,1 C 4,4 C 2,2 C 86 % 0 lf 1010,2 hPa 0,0 l/m 0 min 0 min 0 W/m 29,3 km/h (5 Bft) 100,00 %
12.01.2017 05:58 4,1 C 4,4 C 2,2 C 86 % 0 lf 1010,1 hPa 0,0 l/m 0 min 0 min 0 W/m 20,9 km/h (4 Bft) 100,00 %
12.01.2017 06:00 4,0 C 3,9 C 2,2 C 86 % 0 lf 1010,1 hPa 0,0 l/m 0 min 0 min 0 W/m 18,8 km/h (3 Bft) 97,87 %
12.01.2017 06:02 4,0 C 3,9 C 2,2 C 86 % 0 lf 1010,1 hPa 0,0 l/m 0 min 0 min 0 W/m 20,9 km/h (4 Bft) 100,00 %
12.01.2017 06:04 3,9 C 3,9 C 2,2 C 86 % 0 lf 1010,0 hPa 0,0 l/m 0 min 0 min 0 W/m 33,5 km/h (5 Bft) 94,44 %
12.01.2017 06:06 3,9 C 3,9 C 2,2 C 86 % 0 lf 1010,1 hPa 0,0 l/m 0 min 0 min 0 W/m 29,3 km/h (5 Bft) 100,00 %
12.01.2017 06:08 3,9 C 3,9 C 2,2 C 86 % 0 lf 1010,1 hPa 0,0 l/m 0 min 0 min 0 W/m 27,2 km/h (4 Bft) 97,87 %
12.01.2017 06:10 3,9 C 3,9 C 2,2 C 86 % 0 lf 1010,1 hPa 0,0 l/m 0 min 0 min 0 W/m 33,5 km/h (5 Bft) 100,00 %
12.01.2017 06:12 3,9 C 3,9 C 2,2 C 86 % 0 lf 1010,1 hPa 0,0 l/m 0 min 0 min 0 W/m 23,0 km/h (4 Bft) 97,87 %
12.01.2017 06:14 3,9 C 3,9 C 2,2 C 86 % 0 lf 1010,1 hPa 0,0 l/m 0 min 0 min 0 W/m 35,6 km/h (5 Bft) 97,87 %
12.01.2017 06:16 3,9 C 3,9 C 2,2 C 86 % 0 lf 1010,1 hPa 0,0 l/m 0 min 0 min 0 W/m 35,6 km/h (5 Bft) 97,87 %
12.01.2017 06:18 3,9 C 3,9 C 2,2 C 86 % 0 lf 1010,1 hPa 0,0 l/m 0 min 0 min 0 W/m 27,2 km/h (4 Bft) 97,87 %
12.01.2017 06:20 3,9 C 3,9 C 2,2 C 86 % 0 lf 1010,1 hPa 0,0 l/m 0 min 0 min 0 W/m 25,1 km/h (4 Bft) 97,87 %
12.01.2017 06:22 3,9 C 3,9 C 2,2 C 86 % 0 lf 1010,0 hPa 0,0 l/m 0 min 0 min 0 W/m 25,1 km/h (4 Bft) 95,65 %
12.01.2017 06:24 3,9 C 3,9 C 2,2 C 86 % 0 lf 1010,0 hPa 0,0 l/m 0 min 0 min 0 W/m 16,7 km/h (3 Bft) 97,87 %
12.01.2017 06:26 3,9 C 4,4 C 2,2 C 86 % 0 lf 1010,0 hPa 0,0 l/m 0 min 0 min 0 W/m 25,1 km/h (4 Bft) 97,87 %
12.01.2017 06:28 3,9 C 4,4 C 2,2 C 86 % 0 lf 1010,1 hPa 0,0 l/m 0 min 0 min 0 W/m 27,2 km/h (4 Bft) 91,49 %
12.01.2017 06:30 3,9 C 3,9 C 2,2 C 86 % 0 lf 1010,1 hPa 0,0 l/m 0 min 0 min 0 W/m 29,3 km/h (5 Bft) 95,74 %
12.01.2017 06:32 3,9 C 3,9 C 2,2 C 86 % 0 lf 1010,0 hPa 0,0 l/m 0 min 0 min 0 W/m 25,1 km/h (4 Bft) 97,87 %
12.01.2017 06:34 3,9 C 3,9 C 2,2 C 86 % 0 lf 1010,1 hPa 0,0 l/m 0 min 0 min 0 W/m 27,2 km/h (4 Bft) 100,00 %
12.01.2017 06:36 3,9 C 3,9 C 2,2 C 86 % 0 lf 1010,1 hPa 0,0 l/m 0 min 0 min 0 W/m 31,4 km/h (5 Bft) 97,87 %
12.01.2017 06:38 3,9 C 3,9 C 2,2 C 86 % 0 lf 1010,2 hPa 0,0 l/m 0 min 0 min 0 W/m 35,6 km/h (5 Bft) 95,74 %
12.01.2017 06:40 3,9 C 3,9 C 2,2 C 86 % 0 lf 1010,2 hPa 0,0 l/m 0 min 0 min 0 W/m 35,6 km/h (5 Bft) 95,74 %
12.01.2017 06:42 3,9 C 3,9 C 2,2 C 86 % 0 lf 1010,1 hPa 0,0 l/m 0 min 0 min 0 W/m 29,3 km/h (5 Bft) 97,87 %
12.01.2017 06:44 3,9 C 3,9 C 2,2 C 86 % 0 lf 1010,1 hPa 0,0 l/m 0 min 0 min 0 W/m 27,2 km/h (4 Bft) 100,00 %
12.01.2017 06:46 3,9 C 3,9 C 2,2 C 86 % 0 lf 1010,1 hPa 0,0 l/m 0 min 0 min 0 W/m 20,9 km/h (4 Bft) 96,15 %
12.01.2017 06:48 3,9 C 3,9 C 2,2 C 86 % 0 lf 1010,0 hPa 0,0 l/m 0 min 0 min 0 W/m 27,2 km/h (4 Bft) 100,00 %
12.01.2017 06:50 3,8 C 3,9 C 2,2 C 86 % 0 lf 1010,0 hPa 0,0 l/m 0 min 0 min 0 W/m 29,3 km/h (5 Bft) 100,00 %
12.01.2017 06:52 3,8 C 3,9 C 2,2 C 86 % 0 lf 1010,0 hPa 0,0 l/m 0 min 0 min 0 W/m 25,1 km/h (4 Bft) 95,74 %
12.01.2017 06:54 3,8 C 3,9 C 2,2 C 86 % 0 lf 1010,0 hPa 0,0 l/m 0 min 0 min 0 W/m 23,0 km/h (4 Bft) 95,12 %
12.01.2017 06:56 3,8 C 3,9 C 2,2 C 86 % 0 lf 1010,1 hPa 0,0 l/m 0 min 0 min 0 W/m 29,3 km/h (5 Bft) 91,49 %
12.01.2017 06:58 3,8 C 3,9 C 2,2 C 86 % 0 lf 1010,0 hPa 0,0 l/m 0 min 0 min 0 W/m 37,7 km/h (5 Bft) 97,83 %
12.01.2017 07:00 3,8 C 3,9 C 2,2 C 86 % 0 lf 1010,0 hPa 0,0 l/m 0 min 0 min 0 W/m 31,4 km/h (5 Bft) 93,62 %
12.01.2017 07:02 3,8 C 3,9 C 2,2 C 86 % 0 lf 1010,0 hPa 0,0 l/m 0 min 0 min 0 W/m 27,2 km/h (4 Bft) 98,15 %
12.01.2017 07:04 3,8 C 3,9 C 2,2 C 86 % 0 lf 1010,0 hPa 0,0 l/m 0 min 0 min 0 W/m 29,3 km/h (5 Bft) 97,87 %
12.01.2017 07:06 3,8 C 3,9 C 1,7 C 86 % 0 lf 1010,0 hPa 0,0 l/m 0 min 0 min 0 W/m 31,4 km/h (5 Bft) 97,37 %
12.01.2017 07:08 3,7 C 3,9 C 1,7 C 86 % 0 lf 1009,9 hPa 0,0 l/m 0 min 0 min 0 W/m 27,2 km/h (4 Bft) 93,62 %
12.01.2017 07:10 3,7 C 3,9 C 1,7 C 86 % 0 lf 1010,0 hPa 0,0 l/m 0 min 0 min 0 W/m 27,2 km/h (4 Bft) 95,65 %
12.01.2017 07:12 3,7 C 3,9 C 1,7 C 86 % 0 lf 1010,0 hPa 0,0 l/m 0 min 0 min 0 W/m 31,4 km/h (5 Bft) 91,49 %
12.01.2017 07:14 3,7 C 3,9 C 1,7 C 86 % 0 lf 1010,0 hPa 0,0 l/m 0 min 0 min 0 W/m 20,9 km/h (4 Bft) 93,62 %
12.01.2017 07:16 3,7 C 3,9 C 1,7 C 86 % 0 lf 1010,0 hPa 0,0 l/m 0 min 0 min 0 W/m 27,2 km/h (4 Bft) 91,49 %
12.01.2017 07:18 3,7 C 3,9 C 1,7 C 86 % 0 lf 1010,0 hPa 0,0 l/m 0 min 0 min 0 W/m 29,3 km/h (5 Bft) 95,74 %
12.01.2017 07:20 3,7 C 3,9 C 1,7 C 86 % 0 lf 1009,9 hPa 0,0 l/m 0 min 0 min 0 W/m 23,0 km/h (4 Bft) 95,74 %
12.01.2017 07:22 3,7 C 3,9 C 1,7 C 86 % 0 lf 1009,9 hPa 0,0 l/m 0 min 0 min 0 W/m 33,5 km/h (5 Bft) 95,65 %
12.01.2017 07:24 3,7 C 3,9 C 1,7 C 86 % 0 lf 1010,0 hPa 0,0 l/m 0 min 0 min 0 W/m 25,1 km/h (4 Bft) 91,49 %
12.01.2017 07:26 3,7 C 3,9 C 1,7 C 86 % 0 lf 1010,0 hPa 0,0 l/m 0 min 0 min 0 W/m 25,1 km/h (4 Bft) 93,62 %
12.01.2017 07:28 3,7 C 3,9 C 1,7 C 87 % 0 lf 1010,0 hPa 0,0 l/m 0 min 0 min 0 W/m 31,4 km/h (5 Bft) 95,74 %
12.01.2017 07:30 3,7 C 3,9 C 1,7 C 87 % 0 lf 1010,0 hPa 0,0 l/m 0 min 0 min 0 W/m 25,1 km/h (4 Bft) 91,49 %
12.01.2017 07:32 3,7 C 3,9 C 2,2 C 87 % 0 lf 1009,9 hPa 0,0 l/m 0 min 0 min 0 W/m 25,1 km/h (4 Bft) 95,74 %
12.01.2017 07:34 3,7 C 3,9 C 2,2 C 87 % 0 lf 1010,0 hPa 0,0 l/m 0 min 0 min 0 W/m 18,8 km/h (3 Bft) 89,36 %
12.01.2017 07:36 3,7 C 3,9 C 2,2 C 87 % 0 lf 1010,1 hPa 0,0 l/m 0 min 0 min 0 W/m 37,7 km/h (5 Bft) 92,73 %
12.01.2017 07:38 3,7 C 3,9 C 2,2 C 87 % 0 lf 1010,1 hPa 0,0 l/m 0 min 0 min 0 W/m 29,3 km/h (5 Bft) 93,62 %
12.01.2017 07:40 3,7 C 3,9 C 2,2 C 87 % 0 lf 1010,0 hPa 0,0 l/m 0 min 0 min 0 W/m 23,0 km/h (4 Bft) 91,49 %
12.01.2017 07:42 3,7 C 3,9 C 2,2 C 87 % 0 lf 1010,1 hPa 0,0 l/m 0 min 0 min 0 W/m 31,4 km/h (5 Bft) 93,48 %
12.01.2017 07:44 3,7 C 3,9 C 2,2 C 87 % 0 lf 1010,0 hPa 0,0 l/m 0 min 0 min 0 W/m 25,1 km/h (4 Bft) 89,36 %
12.01.2017 07:46 3,7 C 3,9 C 2,2 C 87 % 0 lf 1010,1 hPa 0,0 l/m 0 min 0 min 0 W/m 33,5 km/h (5 Bft) 95,74 %
12.01.2017 07:48 3,7 C 3,9 C 2,2 C 87 % 0 lf 1010,0 hPa 0,0 l/m 0 min 0 min 0 W/m 33,5 km/h (5 Bft) 95,74 %
12.01.2017 07:50 3,7 C 3,9 C 2,2 C 87 % 0 lf 1010,0 hPa 0,0 l/m 0 min 0 min 0 W/m 23,0 km/h (4 Bft) 95,74 %
12.01.2017 07:52 3,7 C 3,9 C 2,2 C 87 % 0 lf 1010,0 hPa 0,0 l/m 0 min 0 min 0 W/m 25,1 km/h (4 Bft) 87,23 %
12.01.2017 07:54 3,7 C 3,9 C 2,2 C 87 % 0 lf 1009,9 hPa 0,0 l/m 0 min 0 min 0 W/m 33,5 km/h (5 Bft) 97,83 %
12.01.2017 07:56 3,7 C 3,9 C 2,2 C 87 % 0 lf 1009,9 hPa 0,0 l/m 0 min 0 min 0 W/m 31,4 km/h (5 Bft) 95,74 %
12.01.2017 07:58 3,7 C 3,9 C 2,2 C 87 % 0 lf 1009,9 hPa 0,0 l/m 0 min 0 min 0 W/m 39,7 km/h (6 Bft) 93,62 %
12.01.2017 08:00 3,7 C 3,9 C 2,2 C 87 % 0 lf 1009,9 hPa 0,0 l/m 0 min 0 min 0 W/m 27,2 km/h (4 Bft) 95,74 %
12.01.2017 08:02 3,7 C 3,9 C 2,2 C 87 % 0 lf 1009,9 hPa 0,0 l/m 0 min 0 min 0 W/m 31,4 km/h (5 Bft) 95,83 %
12.01.2017 08:04 3,7 C 3,9 C 2,2 C 87 % 0 lf 1009,8 hPa 0,0 l/m 0 min 0 min 0 W/m 27,2 km/h (4 Bft) 95,65 %
12.01.2017 08:06 3,8 C 3,9 C 2,2 C 87 % 0 lf 1009,8 hPa 0,0 l/m 0 min 0 min 0 W/m 25,1 km/h (4 Bft) 94,87 %
12.01.2017 08:08 3,8 C 3,9 C 2,2 C 87 % 0 lf 1009,7 hPa 0,0 l/m 0 min 0 min 0 W/m 33,5 km/h (5 Bft) 93,48 %
12.01.2017 08:10 3,8 C 3,9 C 2,2 C 87 % 0 lf 1009,7 hPa 0,0 l/m 0 min 0 min 0 W/m 31,4 km/h (5 Bft) 95,74 %
12.01.2017 08:12 3,8 C 3,9 C 2,2 C 87 % 0 lf 1009,7 hPa 0,0 l/m 0 min 0 min 0 W/m 27,2 km/h (4 Bft) 91,49 %
12.01.2017 08:14 3,8 C 3,9 C 2,2 C 87 % 0 lf 1009,7 hPa 0,0 l/m 0 min 0 min 0 W/m 29,3 km/h (5 Bft) 93,62 %
12.01.2017 08:16 3,8 C 3,9 C 2,2 C 87 % 0 lf 1009,8 hPa 0,0 l/m 0 min 0 min 0 W/m 31,4 km/h (5 Bft) 93,62 %
12.01.2017 08:18 3,8 C 3,9 C 2,2 C 87 % 0 lf 1009,7 hPa 0,0 l/m 0 min 0 min 0 W/m 29,3 km/h (5 Bft) 95,74 %
12.01.2017 08:20 3,8 C 3,9 C 2,2 C 87 % 0 lf 1009,7 hPa 0,0 l/m 0 min 0 min 0 W/m 33,5 km/h (5 Bft) 95,74 %
12.01.2017 08:22 3,8 C 3,9 C 2,2 C 87 % 0 lf 1009,8 hPa 0,0 l/m 0 min 0 min 0 W/m 25,1 km/h (4 Bft) 96,30 %
12.01.2017 08:24 3,8 C 3,9 C 2,2 C 87 % 0 lf 1009,8 hPa 0,0 l/m 0 min 0 min 0 W/m 35,6 km/h (5 Bft) 95,74 %
12.01.2017 08:26 3,8 C 3,9 C 2,2 C 87 % 0 lf 1009,8 hPa 0,0 l/m 0 min 0 min 0 W/m 31,4 km/h (5 Bft) 95,74 %
12.01.2017 08:28 3,8 C 3,9 C 2,2 C 87 % 0 lf 1009,8 hPa 0,0 l/m 0 min 0 min 0 W/m 27,2 km/h (4 Bft) 95,65 %
12.01.2017 08:30 3,8 C 3,9 C 2,2 C 87 % 0 lf 1009,7 hPa 0,0 l/m 0 min 0 min 0 W/m 33,5 km/h (5 Bft) 93,62 %
12.01.2017 08:32 3,8 C 3,9 C 2,2 C 87 % 0 lf 1009,8 hPa 0,0 l/m 0 min 0 min 4 W/m 27,2 km/h (4 Bft) 93,75 %
12.01.2017 08:34 3,8 C 3,9 C 2,2 C 87 % 0 lf 1009,8 hPa 0,0 l/m 0 min 0 min 5 W/m 25,1 km/h (4 Bft) 93,62 %
12.01.2017 08:36 3,8 C 3,9 C 2,2 C 87 % 0 lf 1009,8 hPa 0,0 l/m 0 min 0 min 5 W/m 31,4 km/h (5 Bft) 97,37 %
12.01.2017 08:38 3,8 C 3,9 C 2,2 C 87 % 0 lf 1009,9 hPa 0,0 l/m 0 min 0 min 6 W/m 27,2 km/h (4 Bft) 97,87 %
12.01.2017 08:40 3,8 C 3,9 C 2,2 C 87 % 0 lf 1009,8 hPa 0,0 l/m 0 min 0 min 7 W/m 25,1 km/h (4 Bft) 97,87 %
12.01.2017 08:42 3,8 C 3,9 C 2,2 C 87 % 0 lf 1009,8 hPa 0,0 l/m 0 min 0 min 8 W/m 23,0 km/h (4 Bft) 95,65 %
12.01.2017 08:44 3,8 C 3,9 C 2,2 C 87 % 0 lf 1009,8 hPa 0,0 l/m 0 min 0 min 10 W/m 29,3 km/h (5 Bft) 97,87 %
12.01.2017 08:46 3,9 C 3,9 C 2,2 C 87 % 0 lf 1009,8 hPa 0,0 l/m 0 min 0 min 11 W/m 33,5 km/h (5 Bft) 93,62 %
12.01.2017 08:48 3,9 C 4,4 C 2,2 C 87 % 0 lf 1009,8 hPa 0,0 l/m 0 min 0 min 11 W/m 33,5 km/h (5 Bft) 95,74 %
12.01.2017 08:50 3,9 C 4,4 C 2,2 C 87 % 0 lf 1009,7 hPa 0,0 l/m 0 min 0 min 11 W/m 25,1 km/h (4 Bft) 97,92 %
12.01.2017 08:52 3,9 C 4,4 C 2,2 C 87 % 0 lf 1009,8 hPa 0,0 l/m 0 min 0 min 12 W/m 23,0 km/h (4 Bft) 97,87 %
12.01.2017 08:54 3,9 C 4,4 C 2,2 C 87 % 0 lf 1009,8 hPa 0,0 l/m 0 min 0 min 12 W/m 25,1 km/h (4 Bft) 95,65 %
12.01.2017 08:56 3,9 C 4,4 C 2,8 C 87 % 0 lf 1009,8 hPa 0,0 l/m 0 min 0 min 14 W/m 27,2 km/h (4 Bft) 95,74 %
12.01.2017 08:58 3,9 C 4,4 C 2,8 C 87 % 0 lf 1009,7 hPa 0,0 l/m 0 min 0 min 16 W/m 27,2 km/h (4 Bft) 100,00 %
12.01.2017 09:00 3,9 C 4,4 C 2,8 C 87 % 0 lf 1009,7 hPa 0,0 l/m 0 min 0 min 18 W/m 29,3 km/h (5 Bft) 97,87 %
12.01.2017 09:02 3,9 C 4,4 C 2,8 C 87 % 0 lf 1009,7 hPa 0,0 l/m 0 min 0 min 19 W/m 23,0 km/h (4 Bft) 96,30 %
12.01.2017 09:04 3,9 C 4,4 C 2,8 C 87 % 0 lf 1009,7 hPa 0,0 l/m 0 min 0 min 20 W/m 31,4 km/h (5 Bft) 97,83 %
12.01.2017 09:06 4,0 C 4,4 C 2,8 C 87 % 0 lf 1009,6 hPa 0,0 l/m 0 min 0 min 23 W/m 29,3 km/h (5 Bft) 100,00 %
12.01.2017 09:08 4,0 C 4,4 C 2,8 C 87 % 0 lf 1009,7 hPa 0,0 l/m 0 min 0 min 26 W/m 25,1 km/h (4 Bft) 95,74 %
12.01.2017 09:10 4,0 C 4,4 C 2,8 C 87 % 0 lf 1009,8 hPa 0,0 l/m 0 min 0 min 28 W/m 27,2 km/h (4 Bft) 100,00 %
12.01.2017 09:12 4,0 C 4,4 C 2,8 C 87 % 0 lf 1009,6 hPa 0,0 l/m 0 min 0 min 31 W/m 29,3 km/h (5 Bft) 93,75 %
12.01.2017 09:14 4,1 C 4,4 C 2,8 C 87 % 0 lf 1009,7 hPa 0,0 l/m 0 min 0 min 32 W/m 31,4 km/h (5 Bft) 100,00 %
12.01.2017 09:16 4,1 C 4,4 C 2,8 C 87 % 0 lf 1009,7 hPa 0,0 l/m 0 min 0 min 33 W/m 25,1 km/h (4 Bft) 97,87 %
12.01.2017 09:18 4,1 C 4,4 C 2,8 C 87 % 0 lf 1009,7 hPa 0,0 l/m 0 min 0 min 33 W/m 27,2 km/h (4 Bft) 97,83 %
12.01.2017 09:20 4,1 C 4,4 C 2,8 C 87 % 0 lf 1009,8 hPa 0,0 l/m 0 min 0 min 35 W/m 27,2 km/h (4 Bft) 100,00 %
12.01.2017 09:22 4,1 C 4,4 C 2,8 C 87 % 0 lf 1009,8 hPa 0,0 l/m 0 min 0 min 36 W/m 27,2 km/h (4 Bft) 100,00 %
12.01.2017 09:24 4,1 C 4,4 C 2,8 C 87 % 0 lf 1009,8 hPa 0,0 l/m 0 min 0 min 38 W/m 25,1 km/h (4 Bft) 100,00 %
12.01.2017 09:26 4,1 C 4,4 C 2,8 C 87 % 0 lf 1009,8 hPa 0,0 l/m 0 min 0 min 39 W/m 27,2 km/h (4 Bft) 100,00 %
12.01.2017 09:28 4,1 C 4,4 C 2,8 C 87 % 0 lf 1009,7 hPa 0,0 l/m 0 min 0 min 39 W/m 27,2 km/h (4 Bft) 95,65 %
12.01.2017 09:30 4,1 C 4,4 C 2,8 C 87 % 0 lf 1009,7 hPa 0,0 l/m 0 min 0 min 42 W/m 25,1 km/h (4 Bft) 97,87 %
12.01.2017 09:32 4,2 C 4,4 C 2,8 C 87 % 0 lf 1009,7 hPa 0,0 l/m 0 min 0 min 44 W/m 29,3 km/h (5 Bft) 98,15 %
12.01.2017 09:34 4,2 C 4,4 C 2,8 C 87 % 0 lf 1009,8 hPa 0,0 l/m 0 min 0 min 43 W/m 25,1 km/h (4 Bft) 100,00 %
12.01.2017 09:36 4,2 C 4,4 C 2,8 C 87 % 0 lf 1009,8 hPa 0,0 l/m 0 min 0 min 42 W/m 16,7 km/h (3 Bft) 97,37 %
12.01.2017 09:38 4,2 C 4,4 C 2,8 C 87 % 0 lf 1009,8 hPa 0,0 l/m 0 min 0 min 44 W/m 27,2 km/h (4 Bft) 100,00 %
12.01.2017 09:40 4,2 C 4,4 C 2,8 C 87 % 0 lf 1009,9 hPa 0,0 l/m 0 min 0 min 48 W/m 25,1 km/h (4 Bft) 100,00 %
12.01.2017 09:42 4,2 C 5,0 C 2,8 C 87 % 0 lf 1009,9 hPa 0,0 l/m 0 min 0 min 54 W/m 25,1 km/h (4 Bft) 97,87 %
12.01.2017 09:44 4,2 C 5,0 C 2,8 C 87 % 0 lf 1009,9 hPa 0,0 l/m 0 min 0 min 61 W/m 20,9 km/h (4 Bft) 95,74 %
12.01.2017 09:46 4,2 C 5,0 C 2,8 C 87 % 0 lf 1009,9 hPa 0,0 l/m 0 min 0 min 65 W/m 25,1 km/h (4 Bft) 93,62 %
12.01.2017 09:48 4,2 C 5,0 C 2,8 C 87 % 0 lf 1009,9 hPa 0,0 l/m 0 min 0 min 68 W/m 25,1 km/h (4 Bft) 97,87 %
12.01.2017 09:50 4,2 C 5,0 C 2,8 C 87 % 0 lf 1009,9 hPa 0,0 l/m 0 min 0 min 69 W/m 20,9 km/h (4 Bft) 95,83 %
12.01.2017 09:52 4,2 C 5,0 C 2,8 C 87 % 0 lf 1009,9 hPa 0,0 l/m 0 min 0 min 70 W/m 20,9 km/h (4 Bft) 93,48 %
12.01.2017 09:54 4,2 C 5,0 C 2,8 C 87 % 0 lf 1010,0 hPa 0,0 l/m 0 min 0 min 69 W/m 25,1 km/h (4 Bft) 97,87 %
12.01.2017 09:56 4,2 C 5,0 C 2,8 C 87 % 0 lf 1010,0 hPa 0,0 l/m 0 min 0 min 69 W/m 25,1 km/h (4 Bft) 91,49 %
12.01.2017 09:58 4,2 C 5,0 C 2,8 C 87 % 0 lf 1010,0 hPa 0,0 l/m 0 min 0 min 70 W/m 18,8 km/h (3 Bft) 91,49 %
12.01.2017 10:00 4,2 C 5,0 C 2,8 C 87 % 0 lf 1010,0 hPa 0,0 l/m 0 min 0 min 78 W/m 18,8 km/h (3 Bft) 93,62 %
12.01.2017 10:02 4,2 C 5,0 C 2,8 C 87 % 0 lf 1010,1 hPa 0,0 l/m 0 min 0 min 70 W/m 25,1 km/h (4 Bft) 88,68 %
12.01.2017 10:04 4,2 C 5,0 C 2,8 C 87 % 0 lf 1010,0 hPa 0,0 l/m 0 min 0 min 66 W/m 23,0 km/h (4 Bft) 93,62 %
12.01.2017 10:06 4,2 C 5,0 C 2,8 C 87 % 0 lf 1010,0 hPa 0,0 l/m 0 min 0 min 67 W/m 23,0 km/h (4 Bft) 93,62 %
12.01.2017 10:08 4,2 C 5,0 C 2,8 C 87 % 0 lf 1010,0 hPa 0,0 l/m 0 min 0 min 79 W/m 20,9 km/h (4 Bft) 93,62 %
12.01.2017 10:10 4,2 C 5,0 C 2,8 C 87 % 0 lf 1010,0 hPa 0,0 l/m 2 min 0 min 112 W/m 23,0 km/h (4 Bft) 91,49 %
12.01.2017 10:12 4,2 C 5,6 C 2,8 C 87 % 0 lf 1010,0 hPa 0,0 l/m 2 min 0 min 110 W/m 23,0 km/h (4 Bft) 91,49 %
12.01.2017 10:14 4,2 C 5,6 C 2,8 C 87 % 0 lf 1009,9 hPa 0,0 l/m 2 min 0 min 102 W/m 27,2 km/h (4 Bft) 93,48 %
12.01.2017 10:16 4,2 C 5,6 C 2,8 C 87 % 0 lf 1009,9 hPa 0,0 l/m 0 min 0 min 90 W/m 23,0 km/h (4 Bft) 91,49 %
12.01.2017 10:18 4,3 C 5,6 C 2,8 C 87 % 0 lf 1009,9 hPa 0,0 l/m 0 min 0 min 84 W/m 29,3 km/h (5 Bft) 93,62 %
12.01.2017 10:20 4,3 C 5,6 C 2,8 C 87 % 0 lf 1009,9 hPa 0,0 l/m 0 min 0 min 80 W/m 25,1 km/h (4 Bft) 91,49 %
12.01.2017 10:22 4,3 C 5,0 C 2,8 C 87 % 0 lf 1009,8 hPa 0,0 l/m 0 min 0 min 78 W/m 20,9 km/h (4 Bft) 93,62 %
12.01.2017 10:24 4,3 C 5,0 C 2,8 C 87 % 0 lf 1009,8 hPa 0,0 l/m 0 min 0 min 80 W/m 18,8 km/h (3 Bft) 95,74 %
12.01.2017 10:26 4,3 C 5,0 C 2,8 C 87 % 0 lf 1009,9 hPa 0,0 l/m 0 min 0 min 85 W/m 27,2 km/h (4 Bft) 93,48 %
12.01.2017 10:28 4,3 C 5,6 C 2,8 C 87 % 0 lf 1009,8 hPa 0,0 l/m 0 min 0 min 88 W/m 23,0 km/h (4 Bft) 95,74 %
12.01.2017 10:30 4,3 C 5,6 C 2,8 C 87 % 0 lf 1009,9 hPa 0,0 l/m 0 min 0 min 86 W/m 25,1 km/h (4 Bft) 93,62 %
12.01.2017 10:32 4,3 C 5,6 C 2,8 C 87 % 0 lf 1009,8 hPa 0,0 l/m 0 min 0 min 87 W/m 12,6 km/h (3 Bft) 95,83 %
12.01.2017 10:34 4,3 C 5,6 C 2,8 C 87 % 0 lf 1009,8 hPa 0,0 l/m 0 min 0 min 83 W/m 20,9 km/h (4 Bft) 97,87 %
12.01.2017 10:36 4,3 C 5,6 C 2,8 C 87 % 0 lf 1009,8 hPa 0,0 l/m 0 min 0 min 83 W/m 14,6 km/h (3 Bft) 94,74 %
12.01.2017 10:38 4,3 C 5,6 C 2,8 C 87 % 0 lf 1009,7 hPa 0,0 l/m 0 min 0 min 84 W/m 23,0 km/h (4 Bft) 95,74 %
12.01.2017 10:40 4,4 C 5,6 C 2,8 C 87 % 0 lf 1009,8 hPa 0,0 l/m 0 min 0 min 91 W/m 25,1 km/h (4 Bft) 91,30 %
12.01.2017 10:42 4,4 C 5,6 C 3,3 C 87 % 0 lf 1009,8 hPa 0,0 l/m 0 min 0 min 101 W/m 23,0 km/h (4 Bft) 95,83 %
12.01.2017 10:44 4,4 C 5,6 C 3,3 C 87 % 0 lf 1009,8 hPa 0,0 l/m 0 min 0 min 101 W/m 14,6 km/h (3 Bft) 97,87 %
12.01.2017 10:46 4,4 C 5,6 C 3,3 C 87 % 0 lf 1009,8 hPa 0,0 l/m 0 min 0 min 110 W/m 27,2 km/h (4 Bft) 100,00 %
12.01.2017 10:48 4,4 C 5,6 C 3,3 C 87 % 0 lf 1009,8 hPa 0,0 l/m 2 min 0 min 127 W/m 25,1 km/h (4 Bft) 97,87 %
12.01.2017 10:50 4,4 C 6,1 C 3,3 C 87 % 0 lf 1009,9 hPa 0,0 l/m 2 min 0 min 155 W/m 23,0 km/h (4 Bft) 95,65 %
12.01.2017 10:52 4,5 C 6,7 C 3,9 C 87 % 0 lf 1009,8 hPa 0,0 l/m 2 min 0 min 164 W/m 18,8 km/h (3 Bft) 95,74 %
12.01.2017 10:54 4,6 C 7,2 C 3,9 C 87 % 0 lf 1009,8 hPa 0,0 l/m 2 min 0 min 162 W/m 14,6 km/h (3 Bft) 93,62 %
12.01.2017 10:56 4,6 C 7,8 C 3,9 C 87 % 0 lf 1009,8 hPa 0,0 l/m 2 min 0 min 156 W/m 25,1 km/h (4 Bft) 100,00 %
12.01.2017 10:58 4,6 C 7,8 C 4,4 C 87 % 0 lf 1009,8 hPa 0,0 l/m 2 min 0 min 164 W/m 20,9 km/h (4 Bft) 100,00 %
12.01.2017 11:00 4,7 C 7,8 C 4,4 C 87 % 0 lf 1009,8 hPa 0,0 l/m 2 min 0 min 166 W/m 23,0 km/h (4 Bft) 97,87 %
12.01.2017 11:02 4,7 C 7,2 C 4,4 C 87 % 0 lf 1009,7 hPa 0,0 l/m 2 min 0 min 167 W/m 29,3 km/h (5 Bft) 97,83 %
12.01.2017 11:04 4,8 C 7,8 C 4,4 C 87 % 0 lf 1009,8 hPa 0,0 l/m 2 min 0 min 163 W/m 16,7 km/h (3 Bft) 100,00 %
12.01.2017 11:06 4,8 C 8,3 C 4,4 C 87 % 0 lf 1009,8 hPa 0,0 l/m 2 min 0 min 167 W/m 20,9 km/h (4 Bft) 96,30 %
12.01.2017 11:08 4,9 C 8,3 C 4,4 C 87 % 0 lf 1009,8 hPa 0,0 l/m 2 min 0 min 175 W/m 23,0 km/h (4 Bft) 97,87 %
12.01.2017 11:10 4,9 C 8,3 C 4,4 C 87 % 0 lf 1009,8 hPa 0,0 l/m 2 min 0 min 170 W/m 18,8 km/h (3 Bft) 93,62 %
12.01.2017 11:12 5,0 C 8,3 C 4,4 C 87 % 0 lf 1009,7 hPa 0,0 l/m 2 min 0 min 148 W/m 23,0 km/h (4 Bft) 100,00 %
12.01.2017 11:14 5,1 C 8,3 C 4,4 C 87 % 0 lf 1009,7 hPa 0,0 l/m 2 min 0 min 155 W/m 18,8 km/h (3 Bft) 100,00 %
12.01.2017 11:16 5,1 C 8,3 C 4,4 C 86 % 0 lf 1009,7 hPa 0,0 l/m 2 min 0 min 149 W/m 20,9 km/h (4 Bft) 97,87 %
12.01.2017 11:18 5,2 C 7,8 C 4,4 C 86 % 0 lf 1009,7 hPa 0,0 l/m 2 min 0 min 151 W/m 29,3 km/h (5 Bft) 100,00 %
12.01.2017 11:20 5,2 C 7,8 C 4,4 C 86 % 0 lf 1009,7 hPa 0,0 l/m 2 min 0 min 150 W/m 29,3 km/h (5 Bft) 100,00 %
12.01.2017 11:22 5,2 C 7,2 C 4,4 C 86 % 0 lf 1009,7 hPa 0,0 l/m 2 min 0 min 139 W/m 27,2 km/h (4 Bft) 100,00 %
12.01.2017 11:24 5,3 C 7,8 C 4,4 C 86 % 0 lf 1009,7 hPa 0,0 l/m 2 min 0 min 144 W/m 27,2 km/h (4 Bft) 95,65 %
12.01.2017 11:26 5,3 C 7,2 C 4,4 C 86 % 0 lf 1009,7 hPa 0,0 l/m 0 min 0 min 122 W/m 23,0 km/h (4 Bft) 97,87 %
12.01.2017 11:28 5,3 C 6,7 C 4,4 C 85 % 0 lf 1009,7 hPa 0,0 l/m 0 min 0 min 112 W/m 39,7 km/h (6 Bft) 100,00 %
12.01.2017 11:30 5,3 C 6,7 C 4,4 C 85 % 0 lf 1009,5 hPa 0,0 l/m 0 min 0 min 114 W/m 27,2 km/h (4 Bft) 97,87 %
12.01.2017 11:32 5,3 C 6,7 C 4,4 C 85 % 0 lf 1009,5 hPa 0,0 l/m 0 min 0 min 120 W/m 27,2 km/h (4 Bft) 100,00 %
12.01.2017 11:34 5,4 C 6,7 C 5,0 C 85 % 0 lf 1009,4 hPa 0,0 l/m 0 min 0 min 124 W/m 29,3 km/h (5 Bft) 96,00 %
12.01.2017 11:36 5,4 C 6,7 C 5,0 C 85 % 0 lf 1009,4 hPa 0,0 l/m 0 min 0 min 120 W/m 27,2 km/h (4 Bft) 92,73 %
12.01.2017 11:38 5,4 C 6,7 C 5,0 C 85 % 0 lf 1009,3 hPa 0,0 l/m 0 min 0 min 118 W/m 25,1 km/h (4 Bft) 100,00 %
12.01.2017 11:40 5,4 C 6,7 C 5,0 C 85 % 0 lf 1009,3 hPa 0,0 l/m 0 min 0 min 110 W/m 20,9 km/h (4 Bft) 96,00 %
12.01.2017 11:42 5,4 C 6,7 C 5,0 C 85 % 0 lf 1009,2 hPa 0,0 l/m 0 min 0 min 103 W/m 23,0 km/h (4 Bft) 95,74 %
12.01.2017 11:44 5,4 C 6,7 C 4,4 C 85 % 0 lf 1009,2 hPa 0,0 l/m 0 min 0 min 104 W/m 27,2 km/h (4 Bft) 95,74 %
12.01.2017 11:46 5,4 C 6,7 C 5,0 C 85 % 0 lf 1009,2 hPa 0,0 l/m 0 min 0 min 114 W/m 25,1 km/h (4 Bft) 98,11 %
12.01.2017 11:48 5,4 C 6,7 C 5,0 C 85 % 0 lf 1009,1 hPa 0,0 l/m 0 min 0 min 123 W/m 20,9 km/h (4 Bft) 97,37 %
12.01.2017 11:50 5,4 C 6,7 C 5,0 C 85 % 0 lf 1009,1 hPa 0,0 l/m 0 min 0 min 126 W/m 27,2 km/h (4 Bft) 95,92 %
12.01.2017 11:52 5,4 C 6,7 C 5,0 C 85 % 0 lf 1008,9 hPa 0,0 l/m 0 min 0 min 120 W/m 25,1 km/h (4 Bft) 95,74 %
12.01.2017 11:54 5,4 C 6,7 C 5,0 C 85 % 0 lf 1009,0 hPa 0,0 l/m 0 min 0 min 118 W/m 23,0 km/h (4 Bft) 97,87 %
12.01.2017 11:56 5,4 C 6,7 C 5,0 C 85 % 0 lf 1008,9 hPa 0,0 l/m 0 min 0 min 111 W/m 27,2 km/h (4 Bft) 98,00 %
12.01.2017 11:58 5,4 C 6,7 C 5,0 C 85 % 0 lf 1008,8 hPa 0,0 l/m 0 min 0 min 105 W/m 18,8 km/h (3 Bft) 95,74 %
12.01.2017 12:00 5,5 C 6,7 C 5,0 C 85 % 0 lf 1008,7 hPa 0,0 l/m 0 min 0 min 108 W/m 25,1 km/h (4 Bft) 95,65 %
12.01.2017 12:02 5,5 C 6,7 C 5,0 C 85 % 0 lf 1008,7 hPa 0,0 l/m 0 min 0 min 113 W/m 18,8 km/h (3 Bft) 93,62 %
12.01.2017 12:04 5,5 C 6,7 C 5,0 C 85 % 0 lf 1008,6 hPa 0,0 l/m 0 min 0 min 110 W/m 35,6 km/h (5 Bft) 93,62 %
12.01.2017 12:06 5,5 C 6,7 C 5,0 C 85 % 0 lf 1008,5 hPa 0,0 l/m 0 min 0 min 108 W/m 18,8 km/h (3 Bft) 93,02 %
12.01.2017 12:08 5,5 C 6,7 C 5,0 C 85 % 0 lf 1008,5 hPa 0,0 l/m 0 min 0 min 108 W/m 20,9 km/h (4 Bft) 95,74 %
12.01.2017 12:10 5,5 C 6,7 C 5,0 C 85 % 0 lf 1008,5 hPa 0,0 l/m 0 min 0 min 115 W/m 27,2 km/h (4 Bft) 93,62 %
12.01.2017 12:12 5,5 C 6,7 C 5,0 C 85 % 0 lf 1008,5 hPa 0,0 l/m 0 min 0 min 119 W/m 25,1 km/h (4 Bft) 91,49 %
12.01.2017 12:14 5,6 C 7,2 C 5,0 C 85 % 0 lf 1008,5 hPa 0,0 l/m 0 min 0 min 113 W/m 20,9 km/h (4 Bft) 90,00 %
12.01.2017 12:16 5,6 C 7,2 C 5,0 C 85 % 0 lf 1008,4 hPa 0,0 l/m 0 min 0 min 114 W/m 23,0 km/h (4 Bft) 93,62 %
12.01.2017 12:18 5,6 C 7,2 C 5,0 C 85 % 0 lf 1008,4 hPa 0,0 l/m 0 min 0 min 118 W/m 16,7 km/h (3 Bft) 93,62 %
12.01.2017 12:20 5,6 C 7,2 C 5,0 C 85 % 0 lf 1008,3 hPa 0,0 l/m 0 min 0 min 123 W/m 23,0 km/h (4 Bft) 97,87 %
12.01.2017 12:22 5,6 C 7,2 C 5,0 C 85 % 0 lf 1008,3 hPa 0,0 l/m 0 min 0 min 119 W/m 20,9 km/h (4 Bft) 93,62 %
12.01.2017 12:24 5,6 C 7,2 C 5,0 C 85 % 0 lf 1008,3 hPa 0,0 l/m 0 min 0 min 122 W/m 23,0 km/h (4 Bft) 95,65 %
12.01.2017 12:26 5,6 C 7,2 C 4,4 C 85 % 0 lf 1008,2 hPa 0,0 l/m 0 min 0 min 127 W/m 25,1 km/h (4 Bft) 91,49 %
12.01.2017 12:28 5,7 C 7,8 C 4,4 C 85 % 0 lf 1008,2 hPa 0,0 l/m 0 min 0 min 127 W/m 23,0 km/h (4 Bft) 93,62 %
12.01.2017 12:30 5,7 C 7,2 C 4,4 C 85 % 0 lf 1008,1 hPa 0,0 l/m 0 min 0 min 128 W/m 23,0 km/h (4 Bft) 95,74 %
12.01.2017 12:32 5,7 C 7,2 C 4,4 C 85 % 0 lf 1008,1 hPa 0,0 l/m 0 min 0 min 131 W/m 29,3 km/h (5 Bft) 93,62 %
12.01.2017 12:34 5,7 C 7,8 C 4,4 C 84 % 0 lf 1008,1 hPa 0,0 l/m 0 min 0 min 125 W/m 31,4 km/h (5 Bft) 95,74 %
12.01.2017 12:36 5,7 C 7,8 C 4,4 C 84 % 0 lf 1008,0 hPa 0,0 l/m 2 min 0 min 160 W/m 25,1 km/h (4 Bft) 95,65 %
12.01.2017 12:38 5,7 C 7,8 C 4,4 C 84 % 0 lf 1008,0 hPa 0,0 l/m 2 min 0 min 178 W/m 29,3 km/h (5 Bft) 97,87 %
12.01.2017 12:40 5,8 C 7,8 C 5,0 C 84 % 0 lf 1007,9 hPa 0,0 l/m 0 min 0 min 136 W/m 25,1 km/h (4 Bft) 95,74 %
12.01.2017 12:42 5,8 C 7,8 C 4,4 C 84 % 0 lf 1007,9 hPa 0,0 l/m 0 min 0 min 143 W/m 31,4 km/h (5 Bft) 93,62 %
12.01.2017 12:44 5,8 C 7,8 C 5,0 C 84 % 0 lf 1007,8 hPa 0,0 l/m 2 min 0 min 163 W/m 20,9 km/h (4 Bft) 93,62 %
12.01.2017 12:46 5,8 C 8,3 C 5,0 C 84 % 0 lf 1007,7 hPa 0,0 l/m 2 min 0 min 206 W/m 29,3 km/h (5 Bft) 89,13 %
12.01.2017 12:48 5,9 C 8,3 C 5,0 C 84 % 0 lf 1007,7 hPa 0,0 l/m 2 min 0 min 188 W/m 29,3 km/h (5 Bft) 97,87 %
12.01.2017 12:50 5,9 C 8,3 C 5,0 C 84 % 0 lf 1007,7 hPa 0,0 l/m 2 min 0 min 206 W/m 27,2 km/h (4 Bft) 91,49 %
12.01.2017 12:52 5,9 C 8,3 C 5,0 C 84 % 0 lf 1007,8 hPa 0,0 l/m 2 min 0 min 201 W/m 37,7 km/h (5 Bft) 91,49 %
12.01.2017 12:54 6,0 C 8,9 C 5,0 C 84 % 0 lf 1007,6 hPa 0,0 l/m 2 min 0 min 229 W/m 33,5 km/h (5 Bft) 93,62 %
12.01.2017 12:56 6,1 C 9,4 C 5,6 C 84 % 0 lf 1007,5 hPa 0,0 l/m 2 min 0 min 256 W/m 35,6 km/h (5 Bft) 95,12 %
12.01.2017 12:58 6,1 C 10,0 C 5,6 C 84 % 0 lf 1007,5 hPa 0,0 l/m 2 min 0 min 257 W/m 20,9 km/h (4 Bft) 92,31 %
12.01.2017 13:00 6,2 C 10,0 C 5,6 C 84 % 0 lf 1007,5 hPa 0,0 l/m 2 min 0 min 254 W/m 29,3 km/h (5 Bft) 95,74 %
12.01.2017 13:02 6,2 C 10,6 C 5,6 C 84 % 0 lf 1007,5 hPa 0,0 l/m 2 min 0 min 249 W/m 29,3 km/h (5 Bft) 91,49 %
12.01.2017 13:04 6,3 C 9,4 C 5,6 C 83 % 0 lf 1007,3 hPa 0,0 l/m 2 min 0 min 232 W/m 33,5 km/h (5 Bft) 93,62 %
12.01.2017 13:06 6,3 C 9,4 C 5,6 C 83 % 0 lf 1007,3 hPa 0,0 l/m 2 min 0 min 192 W/m 29,3 km/h (5 Bft) 97,62 %
12.01.2017 13:08 6,4 C 10,0 C 5,6 C 83 % 0 lf 1007,3 hPa 0,0 l/m 2 min 0 min 194 W/m 23,0 km/h (4 Bft) 93,62 %
12.01.2017 13:10 6,4 C 10,0 C 5,6 C 83 % 0 lf 1007,3 hPa 0,0 l/m 2 min 0 min 215 W/m 37,7 km/h (5 Bft) 91,49 %
12.01.2017 13:12 6,4 C 9,4 C 5,6 C 83 % 0 lf 1007,3 hPa 0,0 l/m 2 min 0 min 217 W/m 31,4 km/h (5 Bft) 93,48 %
12.01.2017 13:14 6,4 C 9,4 C 5,6 C 82 % 0 lf 1007,2 hPa 0,0 l/m 2 min 0 min 190 W/m 27,2 km/h (4 Bft) 93,62 %
12.01.2017 13:16 6,4 C 9,4 C 5,6 C 82 % 0 lf 1007,3 hPa 0,0 l/m 2 min 0 min 240 W/m 29,3 km/h (5 Bft) 91,49 %
12.01.2017 13:18 6,5 C 10,0 C 5,6 C 82 % 0 lf 1007,2 hPa 0,0 l/m 2 min 0 min 215 W/m 35,6 km/h (5 Bft) 95,74 %
12.01.2017 13:20 6,6 C 10,0 C 5,6 C 82 % 0 lf 1007,2 hPa 0,0 l/m 2 min 0 min 238 W/m 29,3 km/h (5 Bft) 93,62 %
12.01.2017 13:22 6,6 C 10,0 C 5,6 C 82 % 0 lf 1007,1 hPa 0,0 l/m 2 min 0 min 202 W/m 25,1 km/h (4 Bft) 93,62 %
12.01.2017 13:24 6,6 C 10,0 C 5,6 C 82 % 0 lf 1007,0 hPa 0,0 l/m 2 min 0 min 211 W/m 25,1 km/h (4 Bft) 95,65 %
12.01.2017 13:26 6,6 C 10,0 C 5,6 C 82 % 0 lf 1007,0 hPa 0,0 l/m 2 min 0 min 218 W/m 27,2 km/h (4 Bft) 91,49 %
12.01.2017 13:28 6,7 C 10,0 C 5,6 C 82 % 0 lf 1006,9 hPa 0,0 l/m 2 min 0 min 186 W/m 20,9 km/h (4 Bft) 97,87 %
12.01.2017 13:30 6,7 C 8,9 C 5,6 C 82 % 0 lf 1006,9 hPa 0,0 l/m 0 min 0 min 131 W/m 23,0 km/h (4 Bft) 100,00 %
12.01.2017 13:32 6,7 C 8,3 C 5,6 C 82 % 0 lf 1006,9 hPa 0,0 l/m 0 min 0 min 135 W/m 33,5 km/h (5 Bft) 91,84 %
12.01.2017 13:34 6,6 C 8,3 C 5,6 C 81 % 0 lf 1006,8 hPa 0,0 l/m 2 min 0 min 219 W/m 29,3 km/h (5 Bft) 100,00 %
12.01.2017 13:36 6,6 C 8,3 C 5,6 C 81 % 0 lf 1006,8 hPa 0,0 l/m 2 min 0 min 188 W/m 29,3 km/h (5 Bft) 100,00 %
12.01.2017 13:38 6,6 C 8,9 C 5,6 C 81 % 0 lf 1006,8 hPa 0,0 l/m 2 min 0 min 191 W/m 33,5 km/h (5 Bft) 97,87 %
12.01.2017 13:40 6,6 C 8,9 C 5,6 C 81 % 0 lf 1006,8 hPa 0,0 l/m 2 min 0 min 204 W/m 29,3 km/h (5 Bft) 100,00 %
12.01.2017 13:42 6,6 C 9,4 C 5,6 C 81 % 0 lf 1006,8 hPa 0,0 l/m 2 min 0 min 243 W/m 20,9 km/h (4 Bft) 95,74 %
12.01.2017 13:44 6,7 C 10,0 C 6,1 C 81 % 0 lf 1006,8 hPa 0,0 l/m 2 min 0 min 232 W/m 27,2 km/h (4 Bft) 100,00 %
12.01.2017 13:46 6,7 C 10,6 C 6,1 C 81 % 0 lf 1006,8 hPa 0,0 l/m 2 min 0 min 256 W/m 31,4 km/h (5 Bft) 100,00 %
12.01.2017 13:48 6,7 C 10,0 C 6,1 C 81 % 0 lf 1006,8 hPa 0,0 l/m 2 min 0 min 232 W/m 41,8 km/h (6 Bft) 95,74 %
12.01.2017 13:50 6,8 C 9,4 C 6,1 C 81 % 0 lf 1006,6 hPa 0,0 l/m 2 min 0 min 218 W/m 41,8 km/h (6 Bft) 100,00 %
12.01.2017 13:52 6,8 C 9,4 C 6,1 C 80 % 0 lf 1006,6 hPa 0,0 l/m 2 min 0 min 223 W/m 39,7 km/h (6 Bft) 100,00 %
12.01.2017 13:54 6,8 C 9,4 C 6,1 C 80 % 0 lf 1006,4 hPa 0,0 l/m 2 min 0 min 218 W/m 29,3 km/h (5 Bft) 97,87 %
12.01.2017 13:56 6,8 C 9,4 C 6,1 C 80 % 0 lf 1006,4 hPa 0,0 l/m 2 min 0 min 188 W/m 31,4 km/h (5 Bft) 95,65 %
12.01.2017 13:58 6,8 C 10,0 C 6,1 C 80 % 0 lf 1006,3 hPa 0,0 l/m 2 min 0 min 210 W/m 25,1 km/h (4 Bft) 100,00 %
12.01.2017 14:00 6,8 C 10,0 C 6,1 C 80 % 0 lf 1006,2 hPa 0,0 l/m 2 min 0 min 198 W/m 29,3 km/h (5 Bft) 100,00 %
12.01.2017 14:02 6,8 C 10,0 C 6,1 C 80 % 0 lf 1006,2 hPa 0,0 l/m 2 min 0 min 192 W/m 23,0 km/h (4 Bft) 97,87 %
12.01.2017 14:04 6,8 C 10,6 C 6,1 C 80 % 0 lf 1006,1 hPa 0,0 l/m 2 min 0 min 207 W/m 25,1 km/h (4 Bft) 97,87 %
12.01.2017 14:06 6,8 C 10,6 C 5,6 C 81 % 0 lf 1006,1 hPa 0,0 l/m 2 min 0 min 191 W/m 27,2 km/h (4 Bft) 100,00 %
12.01.2017 14:08 6,8 C 10,6 C 5,6 C 80 % 0 lf 1006,0 hPa 0,0 l/m 2 min 0 min 157 W/m 20,9 km/h (4 Bft) 97,87 %
12.01.2017 14:10 6,9 C 10,0 C 5,6 C 80 % 0 lf 1006,0 hPa 0,0 l/m 2 min 0 min 146 W/m 31,4 km/h (5 Bft) 100,00 %
12.01.2017 14:12 6,8 C 8,9 C 5,6 C 80 % 0 lf 1006,0 hPa 0,0 l/m 2 min 0 min 145 W/m 27,2 km/h (4 Bft) 97,87 %
12.01.2017 14:14 6,8 C 8,9 C 5,6 C 80 % 0 lf 1006,0 hPa 0,0 l/m 2 min 0 min 160 W/m 31,4 km/h (5 Bft) 97,87 %
12.01.2017 14:16 6,8 C 8,9 C 5,6 C 80 % 0 lf 1006,0 hPa 0,0 l/m 2 min 0 min 166 W/m 20,9 km/h (4 Bft) 95,74 %
12.01.2017 14:18 6,8 C 9,4 C 6,1 C 80 % 0 lf 1005,8 hPa 0,0 l/m 2 min 0 min 179 W/m 20,9 km/h (4 Bft) 95,74 %
12.01.2017 14:20 6,8 C 8,9 C 6,1 C 80 % 0 lf 1005,9 hPa 0,0 l/m 2 min 0 min 150 W/m 16,7 km/h (3 Bft) 95,74 %
12.01.2017 14:22 6,8 C 8,9 C 6,1 C 81 % 0 lf 1005,7 hPa 0,0 l/m 2 min 0 min 127 W/m 18,8 km/h (3 Bft) 95,65 %
12.01.2017 14:24 6,8 C 8,3 C 5,6 C 81 % 0 lf 1005,7 hPa 0,0 l/m 2 min 0 min 122 W/m 31,4 km/h (5 Bft) 95,74 %
12.01.2017 14:26 6,8 C 7,8 C 5,6 C 80 % 0 lf 1005,5 hPa 0,0 l/m 0 min 0 min 119 W/m 25,1 km/h (4 Bft) 97,87 %
12.01.2017 14:28 6,8 C 7,8 C 5,6 C 81 % 0 lf 1005,5 hPa 0,0 l/m 0 min 0 min 118 W/m 12,6 km/h (3 Bft) 91,49 %
12.01.2017 14:30 6,8 C 8,3 C 5,6 C 81 % 0 lf 1005,4 hPa 0,0 l/m 2 min 0 min 120 W/m 8,4 km/h (2 Bft) 97,87 %
12.01.2017 14:32 6,8 C 8,3 C 5,6 C 81 % 0 lf 1005,4 hPa 0,0 l/m 2 min 0 min 126 W/m 23,0 km/h (4 Bft) 97,87 %
12.01.2017 14:34 6,8 C 7,8 C 5,6 C 81 % 0 lf 1005,4 hPa 0,0 l/m 2 min 0 min 125 W/m 20,9 km/h (4 Bft) 95,74 %
12.01.2017 14:36 6,8 C 7,8 C 6,1 C 81 % 0 lf 1005,4 hPa 0,0 l/m 2 min 0 min 121 W/m 14,6 km/h (3 Bft) 95,74 %
12.01.2017 14:38 6,8 C 7,8 C 6,1 C 81 % 0 lf 1005,3 hPa 0,0 l/m 2 min 0 min 115 W/m 12,6 km/h (3 Bft) 97,87 %
12.01.2017 14:40 6,8 C 7,8 C 6,1 C 81 % 0 lf 1005,3 hPa 0,0 l/m 2 min 0 min 114 W/m 20,9 km/h (4 Bft) 95,74 %
12.01.2017 14:42 6,8 C 7,8 C 6,1 C 81 % 0 lf 1005,2 hPa 0,0 l/m 2 min 0 min 116 W/m 16,7 km/h (3 Bft) 93,75 %
12.01.2017 14:44 6,8 C 7,8 C 6,1 C 81 % 0 lf 1005,1 hPa 0,0 l/m 2 min 0 min 117 W/m 16,7 km/h (3 Bft) 93,48 %
12.01.2017 14:46 6,8 C 8,3 C 6,1 C 81 % 0 lf 1005,1 hPa 0,0 l/m 2 min 0 min 117 W/m 14,6 km/h (3 Bft) 95,74 %
12.01.2017 14:48 6,8 C 7,8 C 6,1 C 81 % 0 lf 1005,1 hPa 0,0 l/m 2 min 0 min 113 W/m 16,7 km/h (3 Bft) 95,74 %
12.01.2017 14:50 6,8 C 7,8 C 6,1 C 81 % 0 lf 1005,1 hPa 0,0 l/m 2 min 0 min 109 W/m 18,8 km/h (3 Bft) 89,36 %
12.01.2017 14:52 6,8 C 7,8 C 6,1 C 82 % 0 lf 1004,9 hPa 0,0 l/m 2 min 0 min 105 W/m 10,5 km/h (2 Bft) 93,62 %
12.01.2017 14:54 6,8 C 7,8 C 6,1 C 82 % 0 lf 1004,8 hPa 0,0 l/m 2 min 0 min 107 W/m 18,8 km/h (3 Bft) 91,49 %
12.01.2017 14:56 6,8 C 7,8 C 6,1 C 82 % 0 lf 1004,7 hPa 0,0 l/m 2 min 0 min 106 W/m 14,6 km/h (3 Bft) 93,48 %
12.01.2017 14:58 6,8 C 7,8 C 6,1 C 82 % 0 lf 1004,6 hPa 0,0 l/m 2 min 0 min 105 W/m 14,6 km/h (3 Bft) 97,87 %
12.01.2017 15:00 6,8 C 7,8 C 6,1 C 82 % 0 lf 1004,6 hPa 0,0 l/m 2 min 0 min 109 W/m 27,2 km/h (4 Bft) 97,87 %
12.01.2017 15:02 6,8 C 7,8 C 6,1 C 82 % 0 lf 1004,6 hPa 0,0 l/m 2 min 0 min 108 W/m 16,7 km/h (3 Bft) 93,75 %
12.01.2017 15:04 6,8 C 7,8 C 6,1 C 82 % 0 lf 1004,6 hPa 0,0 l/m 2 min 0 min 105 W/m 25,1 km/h (4 Bft) 93,62 %
12.01.2017 15:06 6,8 C 7,8 C 6,1 C 82 % 0 lf 1004,3 hPa 0,0 l/m 2 min 0 min 101 W/m 18,8 km/h (3 Bft) 93,75 %
12.01.2017 15:08 6,8 C 7,8 C 5,6 C 82 % 0 lf 1004,3 hPa 0,0 l/m 2 min 0 min 99 W/m 25,1 km/h (4 Bft) 95,74 %
12.01.2017 15:10 6,8 C 7,8 C 5,6 C 82 % 0 lf 1004,3 hPa 0,0 l/m 2 min 0 min 95 W/m 25,1 km/h (4 Bft) 95,74 %
12.01.2017 15:12 6,8 C 7,2 C 5,6 C 82 % 0 lf 1004,2 hPa 0,0 l/m 2 min 0 min 90 W/m 27,2 km/h (4 Bft) 95,74 %
12.01.2017 15:14 6,7 C 7,2 C 5,6 C 82 % 0 lf 1004,2 hPa 0,0 l/m 0 min 0 min 85 W/m 14,6 km/h (3 Bft) 97,87 %
12.01.2017 15:16 6,7 C 7,2 C 5,6 C 82 % 0 lf 1004,1 hPa 0,0 l/m 0 min 0 min 82 W/m 20,9 km/h (4 Bft) 97,87 %
12.01.2017 15:18 6,7 C 7,2 C 5,6 C 82 % 0 lf 1004,1 hPa 0,0 l/m 0 min 0 min 78 W/m 12,6 km/h (3 Bft) 97,83 %
12.01.2017 15:20 6,7 C 7,2 C 5,6 C 83 % 0 lf 1004,0 hPa 0,0 l/m 0 min 0 min 74 W/m 18,8 km/h (3 Bft) 93,62 %
12.01.2017 15:22 6,7 C 7,2 C 5,6 C 83 % 0 lf 1004,0 hPa 0,0 l/m 0 min 0 min 70 W/m 27,2 km/h (4 Bft) 95,74 %
12.01.2017 15:24 6,7 C 7,2 C 5,6 C 83 % 0 lf 1003,9 hPa 0,0 l/m 0 min 0 min 66 W/m 14,6 km/h (3 Bft) 93,62 %
12.01.2017 15:26 6,7 C 7,2 C 5,6 C 83 % 0 lf 1003,9 hPa 0,0 l/m 0 min 0 min 62 W/m 14,6 km/h (3 Bft) 95,74 %
12.01.2017 15:28 6,7 C 7,2 C 5,6 C 83 % 0 lf 1003,9 hPa 0,0 l/m 0 min 0 min 60 W/m 16,7 km/h (3 Bft) 95,74 %
12.01.2017 15:30 6,7 C 7,2 C 5,6 C 83 % 0 lf 1003,8 hPa 0,0 l/m 0 min 0 min 55 W/m 14,6 km/h (3 Bft) 95,65 %
12.01.2017 15:32 6,7 C 7,2 C 5,6 C 83 % 0 lf 1003,7 hPa 0,0 l/m 0 min 0 min 52 W/m 16,7 km/h (3 Bft) 95,74 %
12.01.2017 15:34 6,7 C 7,2 C 5,6 C 83 % 0 lf 1003,7 hPa 0,0 l/m 0 min 0 min 49 W/m 25,1 km/h (4 Bft) 91,49 %
12.01.2017 15:36 6,7 C 7,2 C 5,6 C 83 % 0 lf 1003,7 hPa 0,0 l/m 0 min 0 min 45 W/m 25,1 km/h (4 Bft) 95,74 %
12.01.2017 15:38 6,7 C 7,2 C 5,6 C 83 % 0 lf 1003,5 hPa 0,0 l/m 0 min 0 min 42 W/m 29,3 km/h (5 Bft) 97,87 %
12.01.2017 15:40 6,7 C 7,2 C 5,6 C 83 % 0 lf 1003,6 hPa 0,0 l/m 0 min 0 min 40 W/m 16,7 km/h (3 Bft) 97,87 %
12.01.2017 15:42 6,7 C 7,2 C 5,6 C 83 % 0 lf 1003,4 hPa 0,0 l/m 0 min 0 min 38 W/m 18,8 km/h (3 Bft) 93,48 %
12.01.2017 15:44 6,7 C 7,2 C 5,6 C 83 % 0 lf 1003,4 hPa 0,0 l/m 0 min 0 min 34 W/m 16,7 km/h (3 Bft) 97,87 %
12.01.2017 15:46 6,7 C 7,2 C 5,6 C 83 % 0 lf 1003,4 hPa 0,0 l/m 0 min 0 min 29 W/m 14,6 km/h (3 Bft) 95,74 %
12.01.2017 15:48 6,7 C 7,2 C 5,6 C 83 % 0 lf 1003,3 hPa 0,0 l/m 0 min 0 min 26 W/m 8,4 km/h (2 Bft) 95,74 %
12.01.2017 15:50 6,7 C 7,2 C 5,0 C 83 % 0 lf 1003,2 hPa 0,0 l/m 0 min 0 min 25 W/m 16,7 km/h (3 Bft) 91,49 %
12.01.2017 15:52 6,7 C 6,7 C 5,0 C 83 % 0 lf 1003,1 hPa 0,0 l/m 0 min 0 min 21 W/m 14,6 km/h (3 Bft) 93,62 %
12.01.2017 15:54 6,6 C 6,7 C 5,0 C 83 % 0 lf 1003,0 hPa 0,0 l/m 0 min 0 min 19 W/m 14,6 km/h (3 Bft) 95,65 %
12.01.2017 15:56 6,6 C 6,7 C 5,0 C 83 % 0 lf 1003,0 hPa 0,0 l/m 0 min 0 min 17 W/m 14,6 km/h (3 Bft) 89,36 %
12.01.2017 15:58 6,6 C 6,7 C 5,0 C 83 % 0 lf 1003,0 hPa 0,0 l/m 0 min 0 min 14 W/m 12,6 km/h (3 Bft) 91,49 %
12.01.2017 16:00 6,6 C 6,7 C 5,0 C 83 % 0 lf 1002,9 hPa 0,0 l/m 0 min 0 min 14 W/m 18,8 km/h (3 Bft) 91,49 %
12.01.2017 16:02 6,6 C 6,7 C 5,0 C 83 % 0 lf 1002,8 hPa 0,0 l/m 0 min 0 min 14 W/m 18,8 km/h (3 Bft) 94,34 %
12.01.2017 16:04 6,6 C 6,7 C 5,0 C 83 % 0 lf 1002,9 hPa 0,0 l/m 0 min 0 min 13 W/m 14,6 km/h (3 Bft) 91,43 %
12.01.2017 16:06 6,6 C 6,7 C 5,0 C 83 % 0 lf 1002,8 hPa 0,0 l/m 0 min 0 min 14 W/m 16,7 km/h (3 Bft) 94,12 %
12.01.2017 16:08 6,6 C 6,7 C 5,0 C 83 % 0 lf 1002,8 hPa 0,0 l/m 0 min 0 min 13 W/m 16,7 km/h (3 Bft) 93,62 %
12.01.2017 16:10 6,6 C 6,7 C 5,0 C 83 % 0 lf 1002,7 hPa 0,0 l/m 0 min 0 min 12 W/m 20,9 km/h (4 Bft) 97,87 %
12.01.2017 16:12 6,6 C 6,7 C 5,0 C 83 % 0 lf 1002,7 hPa 0,0 l/m 0 min 0 min 11 W/m 25,1 km/h (4 Bft) 95,74 %
12.01.2017 16:14 6,6 C 6,7 C 5,0 C 83 % 0 lf 1002,7 hPa 0,0 l/m 0 min 0 min 10 W/m 20,9 km/h (4 Bft) 91,49 %
12.01.2017 16:16 6,5 C 6,7 C 5,0 C 83 % 0 lf 1002,7 hPa 0,0 l/m 0 min 0 min 9 W/m 20,9 km/h (4 Bft) 93,48 %
12.01.2017 16:18 6,5 C 6,7 C 5,0 C 83 % 0 lf 1002,6 hPa 0,0 l/m 0 min 0 min 9 W/m 23,0 km/h (4 Bft) 95,74 %
12.01.2017 16:20 6,5 C 6,7 C 5,0 C 83 % 0 lf 1002,4 hPa 0,0 l/m 0 min 0 min 8 W/m 18,8 km/h (3 Bft) 97,87 %
12.01.2017 16:22 6,5 C 6,7 C 5,0 C 83 % 0 lf 1002,2 hPa 0,0 l/m 0 min 0 min 7 W/m 8,4 km/h (2 Bft) 91,49 %
12.01.2017 16:24 6,5 C 6,7 C 5,0 C 83 % 0 lf 1002,3 hPa 0,0 l/m 0 min 0 min 6 W/m 14,6 km/h (3 Bft) 93,62 %
12.01.2017 16:26 6,5 C 6,7 C 5,0 C 83 % 0 lf 1002,3 hPa 0,0 l/m 0 min 0 min 5 W/m 16,7 km/h (3 Bft) 95,74 %
12.01.2017 16:28 6,5 C 6,7 C 5,0 C 83 % 0 lf 1002,1 hPa 0,0 l/m 0 min 0 min 5 W/m 18,8 km/h (3 Bft) 95,65 %
12.01.2017 16:30 6,5 C 6,7 C 5,0 C 83 % 0 lf 1002,1 hPa 0,0 l/m 0 min 0 min 5 W/m 16,7 km/h (3 Bft) 95,74 %
12.01.2017 16:32 6,4 C 6,7 C 5,0 C 83 % 0 lf 1002,1 hPa 0,0 l/m 0 min 0 min 5 W/m 25,1 km/h (4 Bft) 93,75 %
12.01.2017 16:34 6,4 C 6,7 C 5,0 C 84 % 0 lf 1002,1 hPa 0,0 l/m 0 min 0 min 5 W/m 27,2 km/h (4 Bft) 93,62 %
12.01.2017 16:36 6,4 C 6,7 C 5,0 C 84 % 0 lf 1002,0 hPa 0,0 l/m 0 min 0 min 5 W/m 25,1 km/h (4 Bft) 97,87 %
12.01.2017 16:38 6,4 C 6,7 C 5,0 C 84 % 1 lf 1001,9 hPa 0,0 l/m 0 min 0 min 5 W/m 23,0 km/h (4 Bft) 97,87 %
12.01.2017 16:40 6,4 C 6,7 C 5,0 C 84 % 1 lf 1001,9 hPa 0,0 l/m 0 min 2 min 5 W/m 23,0 km/h (4 Bft) 97,83 %
12.01.2017 16:42 6,4 C 6,1 C 4,4 C 84 % 2 lf 1001,8 hPa 0,0 l/m 0 min 0 min 0 W/m 25,1 km/h (4 Bft) 95,74 %
12.01.2017 16:44 6,4 C 6,1 C 4,4 C 84 % 1 lf 1001,8 hPa 0,0 l/m 0 min 0 min 0 W/m 20,9 km/h (4 Bft) 95,74 %
12.01.2017 16:46 6,4 C 6,1 C 4,4 C 84 % 0 lf 1001,8 hPa 0,0 l/m 0 min 0 min 0 W/m 27,2 km/h (4 Bft) 96,23 %
12.01.2017 16:48 6,4 C 6,1 C 4,4 C 84 % 0 lf 1001,7 hPa 0,0 l/m 0 min 0 min 0 W/m 25,1 km/h (4 Bft) 100,00 %
12.01.2017 16:50 6,3 C 6,1 C 4,4 C 84 % 0 lf 1001,6 hPa 0,0 l/m 0 min 0 min 0 W/m 18,8 km/h (3 Bft) 93,62 %
12.01.2017 16:52 6,3 C 6,1 C 4,4 C 84 % 0 lf 1001,6 hPa 0,0 l/m 0 min 0 min 0 W/m 16,7 km/h (3 Bft) 97,83 %
12.01.2017 16:54 6,3 C 6,1 C 4,4 C 84 % 0 lf 1001,5 hPa 0,0 l/m 0 min 0 min 0 W/m 20,9 km/h (4 Bft) 97,87 %
12.01.2017 16:56 6,3 C 6,1 C 4,4 C 84 % 0 lf 1001,5 hPa 0,0 l/m 0 min 0 min 0 W/m 25,1 km/h (4 Bft) 100,00 %
12.01.2017 16:58 6,2 C 6,1 C 4,4 C 84 % 1 lf 1001,4 hPa 0,0 l/m 0 min 0 min 0 W/m 12,6 km/h (3 Bft) 95,74 %
12.01.2017 17:00 6,2 C 6,1 C 4,4 C 85 % 0 lf 1001,4 hPa 0,0 l/m 0 min 2 min 0 W/m 25,1 km/h (4 Bft) 97,87 %
12.01.2017 17:02 6,2 C 6,1 C 4,4 C 84 % 1 lf 1001,3 hPa 0,0 l/m 0 min 2 min 0 W/m 12,6 km/h (3 Bft) 100,00 %
12.01.2017 17:04 6,2 C 6,1 C 4,4 C 84 % 2 lf 1001,3 hPa 0,0 l/m 0 min 2 min 0 W/m 16,7 km/h (3 Bft) 100,00 %
12.01.2017 17:06 6,2 C 6,1 C 4,4 C 84 % 1 lf 1001,2 hPa 0,0 l/m 0 min 2 min 0 W/m 14,6 km/h (3 Bft) 100,00 %
12.01.2017 17:08 6,2 C 6,1 C 3,9 C 85 % 2 lf 1001,0 hPa 0,0 l/m 0 min 2 min 0 W/m 14,6 km/h (3 Bft) 100,00 %
12.01.2017 17:10 6,1 C 6,1 C 3,9 C 85 % 1 lf 1001,0 hPa 0,0 l/m 0 min 2 min 0 W/m 14,6 km/h (3 Bft) 97,87 %
12.01.2017 17:12 6,1 C 5,6 C 3,9 C 85 % 1 lf 1000,9 hPa 0,0 l/m 0 min 2 min 0 W/m 12,6 km/h (3 Bft) 100,00 %
12.01.2017 17:14 6,1 C 5,6 C 3,9 C 85 % 3 lf 1000,8 hPa 0,0 l/m 0 min 2 min 0 W/m 12,6 km/h (3 Bft) 100,00 %
12.01.2017 17:16 6,1 C 5,6 C 3,9 C 85 % 2 lf 1000,8 hPa 0,0 l/m 0 min 2 min 0 W/m 14,6 km/h (3 Bft) 97,83 %
12.01.2017 17:18 6,1 C 5,6 C 3,9 C 85 % 1 lf 1000,7 hPa 0,0 l/m 0 min 2 min 0 W/m 12,6 km/h (3 Bft) 97,87 %
12.01.2017 17:20 6,1 C 5,6 C 3,9 C 86 % 0 lf 1000,6 hPa 0,0 l/m 0 min 2 min 0 W/m 12,6 km/h (3 Bft) 97,87 %
12.01.2017 17:22 6,0 C 5,6 C 3,9 C 86 % 1 lf 1000,5 hPa 0,0 l/m 0 min 2 min 0 W/m 8,4 km/h (2 Bft) 97,87 %
12.01.2017 17:24 6,0 C 5,6 C 3,9 C 86 % 2 lf 1000,3 hPa 0,0 l/m 0 min 2 min 0 W/m 8,4 km/h (2 Bft) 95,74 %
12.01.2017 17:26 6,0 C 5,6 C 3,3 C 86 % 1 lf 1000,4 hPa 0,0 l/m 0 min 2 min 0 W/m 8,4 km/h (2 Bft) 100,00 %
12.01.2017 17:28 6,0 C 5,6 C 3,3 C 86 % 3 lf 1000,2 hPa 0,0 l/m 0 min 2 min 0 W/m 10,5 km/h (2 Bft) 95,65 %
12.01.2017 17:30 5,9 C 5,6 C 3,3 C 86 % 1 lf 1000,2 hPa 0,0 l/m 0 min 2 min 0 W/m 16,7 km/h (3 Bft) 97,87 %
12.01.2017 17:32 5,9 C 5,6 C 3,3 C 86 % 2 lf 1000,1 hPa 0,0 l/m 0 min 2 min 0 W/m 12,6 km/h (3 Bft) 100,00 %
12.01.2017 17:34 5,9 C 5,6 C 3,3 C 86 % 2 lf 1000,1 hPa 0,0 l/m 0 min 2 min 0 W/m 16,7 km/h (3 Bft) 100,00 %
12.01.2017 17:36 5,9 C 5,6 C 3,3 C 86 % 4 lf 1000,1 hPa 0,0 l/m 0 min 2 min 0 W/m 16,7 km/h (3 Bft) 100,00 %
12.01.2017 17:38 5,9 C 5,0 C 3,3 C 87 % 10 lf 1000,1 hPa 0,0 l/m 0 min 2 min 0 W/m 25,1 km/h (4 Bft) 100,00 %
12.01.2017 17:40 5,9 C 4,4 C 3,3 C 87 % 15 lf 1000,0 hPa 0,0 l/m 0 min 2 min 0 W/m 27,2 km/h (4 Bft) 97,87 %
12.01.2017 17:42 5,8 C 4,4 C 3,3 C 87 % 15 lf 1000,0 hPa 0,2 l/m 0 min 2 min 0 W/m 18,8 km/h (3 Bft) 93,62 %
12.01.2017 17:44 5,8 C 4,4 C 3,3 C 87 % 15 lf 999,9 hPa 0,0 l/m 0 min 2 min 0 W/m 23,0 km/h (4 Bft) 100,00 %
12.01.2017 17:46 5,8 C 4,4 C 3,3 C 87 % 15 lf 999,8 hPa 0,0 l/m 0 min 2 min 0 W/m 16,7 km/h (3 Bft) 95,74 %
12.01.2017 17:48 5,8 C 4,4 C 3,3 C 88 % 15 lf 999,7 hPa 0,0 l/m 0 min 2 min 0 W/m 10,5 km/h (2 Bft) 100,00 %
12.01.2017 17:50 5,8 C 4,4 C 3,3 C 88 % 15 lf 999,6 hPa 0,0 l/m 0 min 2 min 0 W/m 12,6 km/h (3 Bft) 97,83 %
12.01.2017 17:52 5,7 C 4,4 C 3,3 C 88 % 15 lf 999,5 hPa 0,0 l/m 0 min 2 min 0 W/m 10,5 km/h (2 Bft) 97,87 %
12.01.2017 17:54 5,7 C 4,4 C 3,3 C 88 % 15 lf 999,4 hPa 0,2 l/m 0 min 2 min 0 W/m 14,6 km/h (3 Bft) 97,87 %
12.01.2017 17:56 5,7 C 4,4 C 3,3 C 88 % 15 lf 999,4 hPa 0,0 l/m 0 min 2 min 0 W/m 8,4 km/h (2 Bft) 97,87 %
12.01.2017 17:58 5,7 C 4,4 C 3,3 C 89 % 15 lf 999,3 hPa 0,0 l/m 0 min 2 min 0 W/m 12,6 km/h (3 Bft) 95,74 %
12.01.2017 18:00 5,7 C 4,4 C 3,3 C 89 % 15 lf 999,1 hPa 0,0 l/m 0 min 2 min 0 W/m 6,3 km/h (2 Bft) 100,00 %
12.01.2017 18:02 5,7 C 4,4 C 3,3 C 89 % 15 lf 999,1 hPa 0,0 l/m 0 min 2 min 0 W/m 10,5 km/h (2 Bft) 95,65 %
12.01.2017 18:04 5,6 C 4,4 C 3,3 C 89 % 15 lf 998,9 hPa 0,0 l/m 0 min 2 min 0 W/m 12,6 km/h (3 Bft) 100,00 %
12.01.2017 18:06 5,6 C 4,4 C 3,3 C 89 % 15 lf 998,8 hPa 0,0 l/m 0 min 2 min 0 W/m 8,4 km/h (2 Bft) 97,67 %
12.01.2017 18:08 5,6 C 4,4 C 3,3 C 90 % 15 lf 998,8 hPa 0,2 l/m 0 min 2 min 0 W/m 10,5 km/h (2 Bft) 97,87 %
12.01.2017 18:10 5,5 C 4,4 C 3,3 C 90 % 15 lf 998,7 hPa 0,0 l/m 0 min 2 min 0 W/m 12,6 km/h (3 Bft) 97,87 %
12.01.2017 18:12 5,4 C 4,4 C 3,3 C 90 % 15 lf 998,5 hPa 0,0 l/m 0 min 2 min 0 W/m 8,4 km/h (2 Bft) 95,74 %
12.01.2017 18:14 5,4 C 4,4 C 3,3 C 90 % 15 lf 998,4 hPa 0,0 l/m 0 min 2 min 0 W/m 16,7 km/h (3 Bft) 100,00 %
12.01.2017 18:16 5,4 C 4,4 C 3,3 C 90 % 15 lf 998,4 hPa 0,0 l/m 0 min 2 min 0 W/m 10,5 km/h (2 Bft) 93,62 %
12.01.2017 18:18 5,3 C 4,4 C 3,3 C 91 % 15 lf 998,2 hPa 0,2 l/m 0 min 2 min 0 W/m 12,6 km/h (3 Bft) 97,87 %
12.01.2017 18:20 5,3 C 4,4 C 3,3 C 90 % 15 lf 998,2 hPa 0,0 l/m 0 min 2 min 0 W/m 10,5 km/h (2 Bft) 97,14 %
12.01.2017 18:22 5,3 C 4,4 C 3,3 C 91 % 15 lf 998,1 hPa 0,0 l/m 0 min 2 min 0 W/m 10,5 km/h (2 Bft) 95,24 %
12.01.2017 18:24 5,2 C 4,4 C 3,3 C 91 % 15 lf 998,0 hPa 0,0 l/m 0 min 2 min 0 W/m 10,5 km/h (2 Bft) 95,65 %
12.01.2017 18:26 5,2 C 4,4 C 3,3 C 91 % 15 lf 998,0 hPa 0,0 l/m 0 min 2 min 0 W/m 8,4 km/h (2 Bft) 91,49 %
12.01.2017 18:28 5,2 C 4,4 C 2,8 C 91 % 15 lf 997,9 hPa 0,0 l/m 0 min 2 min 0 W/m 8,4 km/h (2 Bft) 89,36 %
12.01.2017 18:30 5,1 C 4,4 C 2,8 C 91 % 15 lf 997,8 hPa 0,2 l/m 0 min 2 min 0 W/m 14,6 km/h (3 Bft) 93,62 %
12.01.2017 18:32 5,1 C 4,4 C 2,8 C 91 % 15 lf 997,8 hPa 0,0 l/m 0 min 2 min 0 W/m 12,6 km/h (3 Bft) 89,36 %
12.01.2017 18:34 5,1 C 4,4 C 2,8 C 92 % 15 lf 997,7 hPa 0,0 l/m 0 min 2 min 0 W/m 10,5 km/h (2 Bft) 91,49 %
12.01.2017 18:36 5,1 C 4,4 C 2,8 C 92 % 15 lf 997,6 hPa 0,0 l/m 0 min 2 min 0 W/m 12,6 km/h (3 Bft) 92,86 %
12.01.2017 18:38 5,0 C 4,4 C 2,8 C 92 % 15 lf 997,6 hPa 0,0 l/m 0 min 2 min 0 W/m 14,6 km/h (3 Bft) 91,30 %
12.01.2017 18:40 4,9 C 4,4 C 2,8 C 92 % 15 lf 997,5 hPa 0,0 l/m 0 min 2 min 0 W/m 14,6 km/h (3 Bft) 89,36 %
12.01.2017 18:42 4,9 C 4,4 C 2,8 C 92 % 15 lf 997,5 hPa 0,2 l/m 0 min 2 min 0 W/m 14,6 km/h (3 Bft) 91,49 %
12.01.2017 18:44 4,9 C 4,4 C 2,8 C 92 % 15 lf 997,4 hPa 0,0 l/m 0 min 2 min 0 W/m 16,7 km/h (3 Bft) 93,62 %
12.01.2017 18:46 4,9 C 4,4 C 2,8 C 92 % 15 lf 997,4 hPa 0,0 l/m 0 min 2 min 0 W/m 20,9 km/h (4 Bft) 91,49 %
12.01.2017 18:48 4,8 C 4,4 C 2,8 C 93 % 15 lf 997,3 hPa 0,0 l/m 0 min 2 min 0 W/m 14,6 km/h (3 Bft) 93,62 %
12.01.2017 18:50 4,8 C 4,4 C 2,8 C 93 % 15 lf 997,1 hPa 0,0 l/m 0 min 2 min 0 W/m 18,8 km/h (3 Bft) 91,30 %
12.01.2017 18:52 4,8 C 4,4 C 2,8 C 93 % 15 lf 997,0 hPa 0,0 l/m 0 min 2 min 0 W/m 23,0 km/h (4 Bft) 93,75 %
12.01.2017 18:54 4,7 C 4,4 C 2,8 C 93 % 15 lf 996,9 hPa 0,0 l/m 0 min 2 min 0 W/m 14,6 km/h (3 Bft) 93,62 %
12.01.2017 18:56 4,7 C 4,4 C 2,8 C 93 % 15 lf 996,7 hPa 0,2 l/m 0 min 2 min 0 W/m 14,6 km/h (3 Bft) 93,62 %
12.01.2017 18:58 4,7 C 4,4 C 2,8 C 93 % 15 lf 996,7 hPa 0,0 l/m 0 min 2 min 0 W/m 14,6 km/h (3 Bft) 91,49 %
12.01.2017 19:00 4,7 C 4,4 C 2,8 C 93 % 15 lf 996,6 hPa 0,0 l/m 0 min 2 min 0 W/m 25,1 km/h (4 Bft) 93,62 %
12.01.2017 19:02 4,7 C 4,4 C 2,8 C 93 % 15 lf 996,5 hPa 0,0 l/m 0 min 2 min 0 W/m 20,9 km/h (4 Bft) 91,67 %
12.01.2017 19:04 4,7 C 4,4 C 2,8 C 93 % 15 lf 996,3 hPa 0,0 l/m 0 min 2 min 0 W/m 23,0 km/h (4 Bft) 93,62 %
12.01.2017 19:06 4,6 C 4,4 C 2,8 C 93 % 15 lf 996,3 hPa 0,2 l/m 0 min 2 min 0 W/m 20,9 km/h (4 Bft) 91,84 %
12.01.2017 19:08 4,6 C 4,4 C 2,8 C 93 % 15 lf 996,2 hPa 0,0 l/m 0 min 2 min 0 W/m 14,6 km/h (3 Bft) 91,49 %
12.01.2017 19:10 4,6 C 4,4 C 2,8 C 94 % 15 lf 996,2 hPa 0,0 l/m 0 min 2 min 0 W/m 14,6 km/h (3 Bft) 97,87 %
12.01.2017 19:12 4,6 C 4,4 C 2,8 C 94 % 15 lf 996,1 hPa 0,0 l/m 0 min 2 min 0 W/m 23,0 km/h (4 Bft) 95,65 %
12.01.2017 19:14 4,6 C 3,9 C 2,8 C 94 % 15 lf 996,0 hPa 0,0 l/m 0 min 2 min 0 W/m 20,9 km/h (4 Bft) 93,62 %
12.01.2017 19:16 4,6 C 3,9 C 2,8 C 94 % 15 lf 995,9 hPa 0,0 l/m 0 min 2 min 0 W/m 20,9 km/h (4 Bft) 93,62 %
12.01.2017 19:18 4,5 C 3,9 C 2,8 C 94 % 15 lf 995,7 hPa 0,0 l/m 0 min 2 min 0 W/m 16,7 km/h (3 Bft) 95,74 %
12.01.2017 19:20 4,5 C 3,9 C 2,8 C 94 % 15 lf 995,6 hPa 0,2 l/m 0 min 2 min 0 W/m 16,7 km/h (3 Bft) 95,74 %
12.01.2017 19:22 4,5 C 3,9 C 2,8 C 94 % 15 lf 995,5 hPa 0,0 l/m 0 min 2 min 0 W/m 20,9 km/h (4 Bft) 95,74 %
12.01.2017 19:24 4,5 C 3,9 C 2,8 C 94 % 15 lf 995,4 hPa 0,0 l/m 0 min 2 min 0 W/m 14,6 km/h (3 Bft) 95,65 %
12.01.2017 19:26 4,4 C 3,9 C 2,8 C 94 % 15 lf 995,3 hPa 0,0 l/m 0 min 2 min 0 W/m 18,8 km/h (3 Bft) 97,87 %
12.01.2017 19:28 4,4 C 3,9 C 2,8 C 94 % 15 lf 995,2 hPa 0,2 l/m 0 min 2 min 0 W/m 23,0 km/h (4 Bft) 97,87 %
12.01.2017 19:30 4,4 C 3,9 C 2,8 C 94 % 15 lf 995,1 hPa 0,0 l/m 0 min 2 min 0 W/m 20,9 km/h (4 Bft) 93,62 %
12.01.2017 19:32 4,4 C 3,9 C 2,8 C 94 % 15 lf 995,1 hPa 0,0 l/m 0 min 2 min 0 W/m 16,7 km/h (3 Bft) 95,74 %
12.01.2017 19:34 4,4 C 3,9 C 2,8 C 94 % 15 lf 995,0 hPa 0,0 l/m 0 min 2 min 0 W/m 23,0 km/h (4 Bft) 97,87 %
12.01.2017 19:36 4,4 C 3,9 C 2,8 C 94 % 15 lf 994,8 hPa 0,0 l/m 0 min 2 min 0 W/m 20,9 km/h (4 Bft) 97,83 %
12.01.2017 19:38 4,4 C 3,9 C 2,8 C 95 % 15 lf 994,8 hPa 0,0 l/m 0 min 2 min 0 W/m 20,9 km/h (4 Bft) 97,87 %
12.01.2017 19:40 4,3 C 3,9 C 2,8 C 95 % 15 lf 994,8 hPa 0,2 l/m 0 min 2 min 0 W/m 23,0 km/h (4 Bft) 95,74 %
12.01.2017 19:42 4,3 C 3,9 C 2,8 C 95 % 15 lf 994,6 hPa 0,2 l/m 0 min 2 min 0 W/m 18,8 km/h (3 Bft) 97,87 %
12.01.2017 19:44 4,3 C 3,9 C 2,8 C 95 % 15 lf 994,5 hPa 0,0 l/m 0 min 2 min 0 W/m 20,9 km/h (4 Bft) 97,87 %
12.01.2017 19:46 4,3 C 3,9 C 2,8 C 95 % 15 lf 994,4 hPa 0,0 l/m 0 min 2 min 0 W/m 18,8 km/h (3 Bft) 97,83 %
12.01.2017 19:48 4,3 C 3,9 C 2,8 C 95 % 15 lf 994,3 hPa 0,0 l/m 0 min 2 min 0 W/m 16,7 km/h (3 Bft) 93,62 %
12.01.2017 19:50 4,3 C 3,9 C 2,8 C 95 % 15 lf 994,2 hPa 0,2 l/m 0 min 2 min 0 W/m 18,8 km/h (3 Bft) 100,00 %
12.01.2017 19:52 4,3 C 3,9 C 2,8 C 95 % 15 lf 994,1 hPa 0,0 l/m 0 min 2 min 0 W/m 18,8 km/h (3 Bft) 97,87 %
12.01.2017 19:54 4,3 C 3,9 C 2,8 C 95 % 15 lf 994,0 hPa 0,0 l/m 0 min 2 min 0 W/m 23,0 km/h (4 Bft) 97,87 %
12.01.2017 19:56 4,3 C 3,9 C 2,8 C 95 % 15 lf 994,0 hPa 0,2 l/m 0 min 2 min 0 W/m 20,9 km/h (4 Bft) 95,74 %
12.01.2017 19:58 4,2 C 3,9 C 2,8 C 95 % 15 lf 993,8 hPa 0,0 l/m 0 min 2 min 0 W/m 33,5 km/h (5 Bft) 91,30 %
12.01.2017 20:00 4,2 C 3,9 C 2,8 C 95 % 15 lf 993,7 hPa 0,0 l/m 0 min 2 min 0 W/m 23,0 km/h (4 Bft) 95,74 %
12.01.2017 20:02 4,2 C 3,9 C 2,8 C 95 % 15 lf 993,7 hPa 0,0 l/m 0 min 2 min 0 W/m 27,2 km/h (4 Bft) 97,87 %
12.01.2017 20:04 4,2 C 3,9 C 2,8 C 95 % 15 lf 993,6 hPa 0,2 l/m 0 min 2 min 0 W/m 25,1 km/h (4 Bft) 95,74 %
12.01.2017 20:06 4,2 C 3,9 C 2,8 C 95 % 15 lf 993,5 hPa 0,0 l/m 0 min 2 min 0 W/m 31,4 km/h (5 Bft) 94,34 %
12.01.2017 20:08 4,2 C 3,9 C 2,8 C 95 % 15 lf 993,4 hPa 0,0 l/m 0 min 2 min 0 W/m 23,0 km/h (4 Bft) 100,00 %
12.01.2017 20:10 4,2 C 3,9 C 2,8 C 95 % 15 lf 993,3 hPa 0,2 l/m 0 min 2 min 0 W/m 20,9 km/h (4 Bft) 96,15 %
12.01.2017 20:12 4,2 C 3,9 C 2,8 C 95 % 15 lf 993,2 hPa 0,0 l/m 0 min 2 min 0 W/m 20,9 km/h (4 Bft) 97,87 %
12.01.2017 20:14 4,2 C 3,9 C 2,8 C 95 % 15 lf 993,1 hPa 0,0 l/m 0 min 2 min 0 W/m 18,8 km/h (3 Bft) 91,49 %
12.01.2017 20:16 4,2 C 3,9 C 2,8 C 96 % 15 lf 993,0 hPa 0,2 l/m 0 min 2 min 0 W/m 37,7 km/h (5 Bft) 100,00 %
12.01.2017 20:18 4,1 C 3,9 C 2,8 C 96 % 15 lf 992,9 hPa 0,0 l/m 0 min 2 min 0 W/m 39,7 km/h (6 Bft) 95,74 %
12.01.2017 20:20 4,1 C 3,9 C 2,8 C 96 % 15 lf 992,8 hPa 0,2 l/m 0 min 2 min 0 W/m 31,4 km/h (5 Bft) 97,87 %
12.01.2017 20:22 4,1 C 3,9 C 2,8 C 95 % 15 lf 992,6 hPa 0,0 l/m 0 min 2 min 0 W/m 29,3 km/h (5 Bft) 95,65 %
12.01.2017 20:24 4,1 C 3,9 C 2,2 C 95 % 15 lf 992,5 hPa 0,2 l/m 0 min 2 min 0 W/m 29,3 km/h (5 Bft) 97,87 %
12.01.2017 20:26 4,0 C 3,9 C 2,2 C 95 % 15 lf 992,4 hPa 0,0 l/m 0 min 2 min 0 W/m 31,4 km/h (5 Bft) 95,74 %
12.01.2017 20:28 4,0 C 3,9 C 2,2 C 95 % 15 lf 992,1 hPa 0,2 l/m 0 min 2 min 0 W/m 27,2 km/h (4 Bft) 95,74 %
12.01.2017 20:30 3,9 C 3,9 C 2,2 C 96 % 15 lf 992,1 hPa 0,0 l/m 0 min 2 min 0 W/m 33,5 km/h (5 Bft) 97,87 %
12.01.2017 20:32 3,9 C 3,9 C 2,2 C 96 % 15 lf 992,0 hPa 0,2 l/m 0 min 2 min 0 W/m 35,6 km/h (5 Bft) 97,87 %
12.01.2017 20:34 3,9 C 3,9 C 2,2 C 96 % 15 lf 991,9 hPa 0,0 l/m 0 min 2 min 0 W/m 18,8 km/h (3 Bft) 100,00 %
12.01.2017 20:36 3,9 C 3,9 C 2,2 C 96 % 15 lf 991,8 hPa 0,0 l/m 0 min 2 min 0 W/m 31,4 km/h (5 Bft) 100,00 %
12.01.2017 20:38 3,9 C 3,3 C 2,2 C 96 % 15 lf 991,7 hPa 0,2 l/m 0 min 2 min 0 W/m 25,1 km/h (4 Bft) 97,87 %
12.01.2017 20:40 3,8 C 3,3 C 2,2 C 96 % 15 lf 991,7 hPa 0,0 l/m 0 min 2 min 0 W/m 46,0 km/h (6 Bft) 100,00 %
12.01.2017 20:42 3,8 C 3,3 C 2,2 C 96 % 15 lf 991,3 hPa 0,0 l/m 0 min 2 min 0 W/m 39,7 km/h (6 Bft) 100,00 %
12.01.2017 20:44 3,8 C 3,3 C 2,2 C 96 % 15 lf 991,3 hPa 0,2 l/m 0 min 2 min 0 W/m 23,0 km/h (4 Bft) 97,87 %
12.01.2017 20:46 3,8 C 3,3 C 2,2 C 96 % 15 lf 991,2 hPa 0,0 l/m 0 min 2 min 0 W/m 43,9 km/h (6 Bft) 100,00 %
12.01.2017 20:48 3,7 C 3,3 C 2,2 C 96 % 15 lf 991,1 hPa 0,0 l/m 0 min 2 min 0 W/m 33,5 km/h (5 Bft) 100,00 %
12.01.2017 20:50 3,7 C 3,3 C 2,2 C 96 % 15 lf 990,9 hPa 0,2 l/m 0 min 2 min 0 W/m 18,8 km/h (3 Bft) 97,87 %
12.01.2017 20:52 3,7 C 3,3 C 2,2 C 96 % 15 lf 990,7 hPa 0,0 l/m 0 min 2 min 0 W/m 27,2 km/h (4 Bft) 100,00 %
12.01.2017 20:54 3,7 C 3,3 C 2,2 C 96 % 15 lf 990,6 hPa 0,0 l/m 0 min 2 min 0 W/m 29,3 km/h (5 Bft) 100,00 %
12.01.2017 20:56 3,7 C 3,3 C 2,2 C 96 % 15 lf 990,5 hPa 0,2 l/m 0 min 2 min 0 W/m 35,6 km/h (5 Bft) 95,65 %
12.01.2017 20:58 3,7 C 3,3 C 2,2 C 96 % 15 lf 990,3 hPa 0,0 l/m 0 min 2 min 0 W/m 27,2 km/h (4 Bft) 97,87 %
12.01.2017 21:00 3,6 C 3,3 C 2,2 C 96 % 15 lf 990,3 hPa 0,2 l/m 0 min 2 min 0 W/m 25,1 km/h (4 Bft) 97,87 %
12.01.2017 21:02 3,6 C 3,3 C 2,2 C 96 % 15 lf 990,2 hPa 0,0 l/m 0 min 2 min 0 W/m 31,4 km/h (5 Bft) 95,74 %
12.01.2017 21:04 3,6 C 3,3 C 2,2 C 96 % 15 lf 990,1 hPa 0,0 l/m 0 min 2 min 0 W/m 33,5 km/h (5 Bft) 95,74 %
12.01.2017 21:06 3,6 C 3,3 C 2,2 C 96 % 15 lf 990,0 hPa 0,0 l/m 0 min 2 min 0 W/m 33,5 km/h (5 Bft) 95,35 %
12.01.2017 21:08 3,6 C 3,3 C 2,2 C 96 % 15 lf 989,8 hPa 0,0 l/m 0 min 2 min 0 W/m 27,2 km/h (4 Bft) 97,87 %
12.01.2017 21:10 3,6 C 3,3 C 2,2 C 96 % 15 lf 989,8 hPa 0,2 l/m 0 min 2 min 0 W/m 31,4 km/h (5 Bft) 97,83 %
12.01.2017 21:12 3,6 C 3,3 C 2,2 C 96 % 15 lf 989,7 hPa 0,0 l/m 0 min 2 min 0 W/m 23,0 km/h (4 Bft) 95,74 %
12.01.2017 21:14 3,6 C 3,3 C 2,2 C 96 % 15 lf 989,6 hPa 0,0 l/m 0 min 2 min 0 W/m 20,9 km/h (4 Bft) 93,62 %
12.01.2017 21:16 3,5 C 3,3 C 2,2 C 96 % 15 lf 989,5 hPa 0,2 l/m 0 min 2 min 0 W/m 27,2 km/h (4 Bft) 97,87 %
12.01.2017 21:18 3,6 C 3,3 C 2,2 C 96 % 15 lf 989,5 hPa 0,0 l/m 0 min 2 min 0 W/m 23,0 km/h (4 Bft) 100,00 %
12.01.2017 21:20 3,6 C 3,3 C 2,2 C 96 % 15 lf 989,5 hPa 0,0 l/m 0 min 2 min 0 W/m 25,1 km/h (4 Bft) 97,14 %
12.01.2017 21:22 3,6 C 3,3 C 2,2 C 96 % 15 lf 989,3 hPa 0,2 l/m 0 min 2 min 0 W/m 25,1 km/h (4 Bft) 95,16 %
12.01.2017 21:24 3,6 C 3,3 C 2,2 C 96 % 15 lf 989,3 hPa 0,2 l/m 0 min 2 min 0 W/m 27,2 km/h (4 Bft) 89,36 %
12.01.2017 21:26 3,6 C 3,3 C 2,2 C 96 % 15 lf 989,2 hPa 0,0 l/m 0 min 2 min 0 W/m 23,0 km/h (4 Bft) 93,62 %
12.01.2017 21:28 3,5 C 3,3 C 2,2 C 96 % 15 lf 989,0 hPa 0,2 l/m 0 min 2 min 0 W/m 35,6 km/h (5 Bft) 95,74 %
12.01.2017 21:30 3,5 C 3,3 C 2,2 C 96 % 15 lf 988,9 hPa 0,0 l/m 0 min 2 min 0 W/m 23,0 km/h (4 Bft) 95,74 %
12.01.2017 21:32 3,5 C 3,3 C 2,2 C 96 % 15 lf 988,8 hPa 0,0 l/m 0 min 2 min 0 W/m 23,0 km/h (4 Bft) 93,48 %
12.01.2017 21:34 3,5 C 3,3 C 2,2 C 96 % 15 lf 988,6 hPa 0,2 l/m 0 min 2 min 0 W/m 31,4 km/h (5 Bft) 93,62 %
12.01.2017 21:36 3,5 C 3,3 C 2,2 C 96 % 15 lf 988,5 hPa 0,0 l/m 0 min 2 min 0 W/m 33,5 km/h (5 Bft) 90,48 %
12.01.2017 21:38 3,5 C 3,3 C 2,2 C 96 % 15 lf 988,4 hPa 0,2 l/m 0 min 2 min 0 W/m 23,0 km/h (4 Bft) 93,62 %
12.01.2017 21:40 3,4 C 3,3 C 2,2 C 96 % 15 lf 988,2 hPa 0,0 l/m 0 min 2 min 0 W/m 27,2 km/h (4 Bft) 85,11 %
12.01.2017 21:42 3,4 C 3,3 C 2,2 C 96 % 15 lf 988,2 hPa 0,0 l/m 0 min 2 min 0 W/m 35,6 km/h (5 Bft) 93,75 %
12.01.2017 21:44 3,4 C 3,3 C 2,2 C 96 % 15 lf 988,0 hPa 0,2 l/m 0 min 2 min 0 W/m 31,4 km/h (5 Bft) 95,65 %
12.01.2017 21:46 3,4 C 3,3 C 2,2 C 96 % 15 lf 987,8 hPa 0,0 l/m 0 min 2 min 0 W/m 41,8 km/h (6 Bft) 95,74 %
12.01.2017 21:48 3,4 C 3,3 C 2,2 C 96 % 15 lf 987,7 hPa 0,0 l/m 0 min 2 min 0 W/m 23,0 km/h (4 Bft) 97,87 %
12.01.2017 21:50 3,4 C 3,3 C 2,2 C 96 % 15 lf 987,5 hPa 0,0 l/m 0 min 2 min 0 W/m 27,2 km/h (4 Bft) 97,14 %
12.01.2017 21:52 3,4 C 3,3 C 2,2 C 96 % 15 lf 987,5 hPa 0,2 l/m 0 min 2 min 0 W/m 41,8 km/h (6 Bft) 95,24 %
12.01.2017 21:54 3,3 C 3,3 C 2,2 C 96 % 15 lf 987,2 hPa 0,0 l/m 0 min 2 min 0 W/m 31,4 km/h (5 Bft) 89,13 %
12.01.2017 21:56 3,3 C 3,3 C 2,2 C 96 % 15 lf 987,1 hPa 0,2 l/m 0 min 2 min 0 W/m 27,2 km/h (4 Bft) 93,62 %
12.01.2017 21:58 3,3 C 3,3 C 2,2 C 96 % 15 lf 987,1 hPa 0,0 l/m 0 min 2 min 0 W/m 31,4 km/h (5 Bft) 95,74 %
12.01.2017 22:00 3,3 C 3,3 C 1,7 C 96 % 15 lf 987,1 hPa 0,2 l/m 0 min 2 min 0 W/m 31,4 km/h (5 Bft) 93,62 %
12.01.2017 22:02 3,3 C 3,3 C 1,7 C 96 % 15 lf 987,0 hPa 0,0 l/m 0 min 2 min 0 W/m 29,3 km/h (5 Bft) 93,62 %
12.01.2017 22:04 3,3 C 3,3 C 1,7 C 96 % 15 lf 987,0 hPa 0,2 l/m 0 min 2 min 0 W/m 37,7 km/h (5 Bft) 95,74 %
12.01.2017 22:06 3,3 C 3,3 C 1,7 C 96 % 15 lf 986,8 hPa 0,0 l/m 0 min 2 min 0 W/m 29,3 km/h (5 Bft) 95,35 %
12.01.2017 22:08 3,3 C 3,3 C 1,7 C 96 % 15 lf 986,7 hPa 0,2 l/m 0 min 2 min 0 W/m 25,1 km/h (4 Bft) 95,65 %
12.01.2017 22:10 3,2 C 2,8 C 1,7 C 96 % 15 lf 986,6 hPa 0,2 l/m 0 min 2 min 0 W/m 50,2 km/h (7 Bft) 95,74 %
12.01.2017 22:12 3,2 C 2,8 C 1,7 C 96 % 15 lf 986,5 hPa 0,0 l/m 0 min 2 min 0 W/m 31,4 km/h (5 Bft) 95,74 %
12.01.2017 22:14 3,2 C 2,8 C 1,7 C 96 % 15 lf 986,4 hPa 0,2 l/m 0 min 2 min 0 W/m 25,1 km/h (4 Bft) 89,36 %
12.01.2017 22:16 3,1 C 2,8 C 1,7 C 96 % 15 lf 986,0 hPa 0,0 l/m 0 min 2 min 0 W/m 29,3 km/h (5 Bft) 95,74 %
12.01.2017 22:18 3,1 C 2,8 C 1,7 C 96 % 15 lf 985,9 hPa 0,2 l/m 0 min 2 min 0 W/m 31,4 km/h (5 Bft) 97,87 %
12.01.2017 22:20 3,1 C 2,8 C 1,7 C 96 % 15 lf 985,8 hPa 0,0 l/m 0 min 2 min 0 W/m 35,6 km/h (5 Bft) 100,00 %
12.01.2017 22:22 3,0 C 2,8 C 1,7 C 96 % 15 lf 985,6 hPa 0,0 l/m 0 min 2 min 0 W/m 33,5 km/h (5 Bft) 98,39 %
12.01.2017 22:24 2,9 C 2,8 C 1,7 C 96 % 15 lf 985,6 hPa 0,2 l/m 0 min 2 min 0 W/m 41,8 km/h (6 Bft) 97,87 %
12.01.2017 22:26 2,9 C 2,8 C 1,7 C 96 % 15 lf 985,4 hPa 0,0 l/m 0 min 2 min 0 W/m 41,8 km/h (6 Bft) 100,00 %
12.01.2017 22:28 2,9 C 2,8 C 1,7 C 96 % 15 lf 985,4 hPa 0,0 l/m 0 min 2 min 0 W/m 25,1 km/h (4 Bft) 100,00 %
12.01.2017 22:30 2,9 C 2,8 C 1,7 C 96 % 15 lf 985,4 hPa 0,0 l/m 0 min 2 min 0 W/m 35,6 km/h (5 Bft) 95,65 %
12.01.2017 22:32 2,9 C 2,8 C 1,7 C 96 % 15 lf 985,3 hPa 0,0 l/m 0 min 2 min 0 W/m 33,5 km/h (5 Bft) 100,00 %
12.01.2017 22:34 2,9 C 2,8 C 1,7 C 96 % 15 lf 985,1 hPa 0,0 l/m 0 min 2 min 0 W/m 27,2 km/h (4 Bft) 97,87 %
12.01.2017 22:36 2,9 C 2,8 C 1,7 C 96 % 15 lf 984,9 hPa 0,0 l/m 0 min 2 min 0 W/m 29,3 km/h (5 Bft) 97,62 %
12.01.2017 22:38 2,9 C 2,8 C 1,7 C 97 % 15 lf 984,7 hPa 0,0 l/m 0 min 2 min 0 W/m 33,5 km/h (5 Bft) 97,87 %
12.01.2017 22:40 2,9 C 2,8 C 1,7 C 97 % 15 lf 984,6 hPa 0,0 l/m 0 min 2 min 0 W/m 31,4 km/h (5 Bft) 100,00 %
12.01.2017 22:42 2,9 C 2,8 C 1,7 C 97 % 15 lf 984,6 hPa 0,0 l/m 0 min 2 min 0 W/m 25,1 km/h (4 Bft) 95,74 %
12.01.2017 22:44 2,9 C 2,8 C 1,7 C 97 % 15 lf 984,5 hPa 0,0 l/m 0 min 2 min 0 W/m 33,5 km/h (5 Bft) 97,83 %
12.01.2017 22:46 2,9 C 2,8 C 1,7 C 97 % 15 lf 984,4 hPa 0,0 l/m 0 min 2 min 0 W/m 43,9 km/h (6 Bft) 100,00 %
12.01.2017 22:48 2,9 C 2,8 C 1,7 C 97 % 15 lf 984,2 hPa 0,0 l/m 0 min 2 min 0 W/m 29,3 km/h (5 Bft) 95,74 %
12.01.2017 22:50 2,9 C 2,8 C 1,7 C 97 % 15 lf 984,0 hPa 0,0 l/m 0 min 2 min 0 W/m 31,4 km/h (5 Bft) 100,00 %
12.01.2017 22:52 2,9 C 2,8 C 1,7 C 97 % 15 lf 983,9 hPa 0,0 l/m 0 min 2 min 0 W/m 31,4 km/h (5 Bft) 96,00 %
12.01.2017 22:54 2,9 C 3,3 C 1,7 C 97 % 15 lf 983,6 hPa 0,0 l/m 0 min 2 min 0 W/m 31,4 km/h (5 Bft) 100,00 %
12.01.2017 22:56 2,9 C 3,3 C 1,7 C 97 % 15 lf 983,5 hPa 0,0 l/m 0 min 2 min 0 W/m 41,8 km/h (6 Bft) 93,62 %
12.01.2017 22:58 2,9 C 3,3 C 1,7 C 97 % 15 lf 983,5 hPa 0,0 l/m 0 min 2 min 0 W/m 31,4 km/h (5 Bft) 97,87 %
12.01.2017 23:00 3,0 C 3,3 C 1,7 C 97 % 15 lf 983,4 hPa 0,0 l/m 0 min 2 min 0 W/m 27,2 km/h (4 Bft) 97,87 %
12.01.2017 23:02 3,0 C 3,3 C 1,7 C 97 % 15 lf 983,2 hPa 0,0 l/m 0 min 0 min 0 W/m 23,0 km/h (4 Bft) 97,92 %
12.01.2017 23:04 3,0 C 3,3 C 1,7 C 97 % 15 lf 983,2 hPa 0,0 l/m 0 min 2 min 0 W/m 33,5 km/h (5 Bft) 93,62 %
12.01.2017 23:06 3,0 C 3,3 C 1,7 C 97 % 15 lf 983,0 hPa 0,0 l/m 0 min 2 min 0 W/m 31,4 km/h (5 Bft) 95,74 %
12.01.2017 23:08 3,1 C 3,3 C 1,7 C 97 % 15 lf 983,0 hPa 0,0 l/m 0 min 2 min 0 W/m 25,1 km/h (4 Bft) 97,87 %
12.01.2017 23:10 3,1 C 3,3 C 1,7 C 97 % 15 lf 982,9 hPa 0,0 l/m 0 min 0 min 0 W/m 29,3 km/h (5 Bft) 97,87 %
12.01.2017 23:12 3,1 C 3,3 C 1,7 C 97 % 15 lf 982,8 hPa 0,0 l/m 0 min 2 min 0 W/m 25,1 km/h (4 Bft) 95,74 %
12.01.2017 23:14 3,1 C 3,3 C 1,7 C 97 % 15 lf 982,7 hPa 0,0 l/m 0 min 2 min 0 W/m 35,6 km/h (5 Bft) 97,87 %
12.01.2017 23:16 3,1 C 3,3 C 1,7 C 97 % 15 lf 982,6 hPa 0,0 l/m 0 min 2 min 0 W/m 25,1 km/h (4 Bft) 97,83 %
12.01.2017 23:18 3,1 C 3,3 C 1,7 C 97 % 15 lf 982,6 hPa 0,0 l/m 0 min 2 min 0 W/m 27,2 km/h (4 Bft) 95,74 %
12.01.2017 23:20 3,1 C 3,3 C 1,7 C 97 % 15 lf 982,4 hPa 0,0 l/m 0 min 2 min 0 W/m 27,2 km/h (4 Bft) 93,62 %
12.01.2017 23:22 3,1 C 3,3 C 1,7 C 97 % 15 lf 982,4 hPa 0,0 l/m 0 min 2 min 0 W/m 35,6 km/h (5 Bft) 93,62 %
12.01.2017 23:24 3,1 C 3,3 C 1,7 C 97 % 15 lf 982,2 hPa 0,0 l/m 0 min 2 min 0 W/m 23,0 km/h (4 Bft) 97,87 %
12.01.2017 23:26 3,1 C 3,3 C 1,7 C 97 % 15 lf 982,1 hPa 0,0 l/m 0 min 2 min 0 W/m 16,7 km/h (3 Bft) 95,74 %
12.01.2017 23:28 3,1 C 3,3 C 1,7 C 97 % 15 lf 982,1 hPa 0,0 l/m 0 min 0 min 0 W/m 27,2 km/h (4 Bft) 97,83 %
12.01.2017 23:30 3,1 C 3,3 C 1,7 C 97 % 15 lf 982,0 hPa 0,0 l/m 0 min 0 min 0 W/m 29,3 km/h (5 Bft) 97,87 %
12.01.2017 23:32 3,1 C 3,3 C 1,7 C 97 % 15 lf 981,9 hPa 0,0 l/m 0 min 2 min 0 W/m 33,5 km/h (5 Bft) 93,62 %
12.01.2017 23:34 3,1 C 3,3 C 2,2 C 97 % 15 lf 981,8 hPa 0,0 l/m 0 min 2 min 0 W/m 27,2 km/h (4 Bft) 95,74 %
12.01.2017 23:36 3,1 C 3,3 C 2,2 C 97 % 15 lf 981,8 hPa 0,0 l/m 0 min 2 min 0 W/m 27,2 km/h (4 Bft) 93,62 %
12.01.2017 23:38 3,2 C 3,3 C 2,2 C 97 % 15 lf 981,7 hPa 0,0 l/m 0 min 2 min 0 W/m 35,6 km/h (5 Bft) 93,62 %
12.01.2017 23:40 3,2 C 3,3 C 2,2 C 97 % 15 lf 981,6 hPa 0,0 l/m 0 min 2 min 0 W/m 33,5 km/h (5 Bft) 91,30 %
12.01.2017 23:42 3,2 C 3,3 C 2,2 C 97 % 15 lf 981,5 hPa 0,0 l/m 0 min 2 min 0 W/m 39,7 km/h (6 Bft) 89,36 %
12.01.2017 23:44 3,2 C 3,3 C 2,2 C 97 % 15 lf 981,5 hPa 0,0 l/m 0 min 2 min 0 W/m 31,4 km/h (5 Bft) 93,62 %
12.01.2017 23:46 3,2 C 3,3 C 2,2 C 97 % 15 lf 981,4 hPa 0,0 l/m 0 min 2 min 0 W/m 23,0 km/h (4 Bft) 95,12 %
12.01.2017 23:48 3,2 C 3,3 C 2,2 C 97 % 15 lf 981,4 hPa 0,0 l/m 0 min 0 min 0 W/m 25,1 km/h (4 Bft) 90,57 %
12.01.2017 23:50 3,2 C 3,3 C 2,2 C 97 % 15 lf 981,2 hPa 0,0 l/m 0 min 0 min 0 W/m 31,4 km/h (5 Bft) 91,49 %
12.01.2017 23:52 3,2 C 3,3 C 2,2 C 97 % 15 lf 981,2 hPa 0,0 l/m 0 min 2 min 0 W/m 25,1 km/h (4 Bft) 93,48 %
12.01.2017 23:54 3,3 C 3,3 C 2,2 C 97 % 15 lf 981,2 hPa 0,0 l/m 0 min 2 min 0 W/m 25,1 km/h (4 Bft) 93,62 %
12.01.2017 23:56 3,3 C 3,3 C 2,2 C 97 % 15 lf 981,2 hPa 0,0 l/m 0 min 0 min 0 W/m 27,2 km/h (4 Bft) 93,62 %
12.01.2017 23:58 3,3 C 3,3 C 2,2 C 97 % 15 lf 981,0 hPa 0,0 l/m 0 min 0 min 0 W/m 20,9 km/h (4 Bft) 95,74 %
_ Min-Zeit 22:24 22:10 01:38 13:52 00:00 23:58 - - - - 18:00 21:40
Minimum _ 2,9 C 2,8 C 1,7 C 80 % 0 lf 981,0 hPa - - - - 6,3 km/h (2 Bft) 85,11 %
_ Max-Zeit 14:10 13:02 13:44 22:38 17:40 04:08 17:42 10:10 16:40 12:58 22:10 00:22
Maximum _ 6,9 C 10,6 C 6,1 C 97 % 15 lf 1010,5 hPa 0,2 l/m 2 min 2 min 257 W/m 50,2 km/h
SO (7 Bft)
100,00 %
Durchschnitt _ 4,6 C 5,0 C 3,1 C 87 % 4 lf 1003,7 hPa #8,6 l/m #3:10 h #6:46 h 103 W/m 24,3 km/h (4 Bft) 95,98 %
© 2017 W. Hausmann